                ,  0.290,  0.386,  0.483,  0.580,  0.676,  0.773,  0.869,  0.966,  1.063,  1.159,  1.256,  1.352,  1.449,  1.545,  1.642,  1.739,  1.835,  1.932,  2.028,  2.125,  2.222,  2.318,  2.415,  2.511,  2.608,  2.705,  2.801,  2.898,  2.994,  3.091,  3.188,  3.284,  3.381,  3.477,  3.574,  3.671,  3.767,  3.864,  3.960,  4.057,  4.153,  4.250,  4.347,  4.443,  4.540,  4.636,  4.733,  4.830,  4.926,  5.023,  5.119,  5.216,  5.313,  5.409,  5.506,  5.602,  5.699,  5.796
2000/12/26 00:00,  999.0,  999.0,  999.0,  999.0,    0.6,    1.3,    2.5,  999.0,  999.0,    0.5,  999.0,  999.0,  999.0,  999.0,  999.0,  999.0,  999.0,  999.0,  999.0,  999.0,  999.0,  999.0,  999.0,  999.0,  999.0,  999.0,  999.0,  999.0,  999.0,  999.0,  999.0,  999.0,  999.0,  999.0,  999.0,  999.0,  999.0,  999.0,  999.0,  999.0,  999.0,  999.0,  999.0,  999.0,  999.0,  999.0,  999.0,  999.0,  999.0,  999.0,  999.0,  999.0,  999.0,  999.0,  999.0,  999.0,  999.0,  999.0
2000/12/26 00:10,  999.0,  999.0,  999.0,   -1.4,   -0.9,   -1.1,   -1.2,    0.4,   -0.6,  999.0,    4.5,  999.0,  999.0,  999.0,  999.0,  999.0,   -4.2,  999.0,  999.0,  999.0,  999.0,  999.0,  999.0,  999.0,  999.0,  999.0,  999.0,  999.0,  999.0,  999.0,  999.0,  999.0,  999.0,  999.0,  999.0,  999.0,  999.0,  999.0,  999.0,  999.0,  999.0,  999.0,  999.0,  999.0,  999.0,  999.0,  999.0,  999.0,  999.0,  999.0,  999.0,  999.0,  999.0,  999.0,  999.0,  999.0,  999.0,  999.0
2000/12/26 00:20,  999.0,  999.0,    2.3,    3.8,    1.2,   -1.1,   -2.0,    0.3,  999.0,  999.0,    3.8,    4.7,  999.0,  999.0,  999.0,    8.1,  999.0,   11.3,  999.0,  999.0,  999.0,  999.0,  999.0,  999.0,  999.0,  999.0,  999.0,  999.0,  999.0,  999.0,  999.0,  999.0,  999.0,  999.0,  999.0,  999.0,  999.0,  999.0,  999.0,  999.0,  999.0,  999.0,  999.0,  999.0,  999.0,  999.0,  999.0,  999.0,  999.0,  999.0,  999.0,  999.0,  999.0,  999.0,  999.0,  999.0,  999.0,  999.0
2000/12/26 00:30,  999.0,    5.7,   11.5,    8.7,    6.1,    1.9,   -0.1,    1.7,    4.4,    4.8,    6.3,    1.2,  -16.8,    4.2,  999.0,  -21.9,  999.0,  999.0,  999.0,  999.0,  999.0,  999.0,  999.0,  999.0,  999.0,  999.0,  999.0,  999.0,  999.0,  999.0,  999.0,  999.0,  999.0,  999.0,  999.0,  999.0,  999.0,  999.0,  999.0,  999.0,  999.0,  999.0,  999.0,  999.0,  999.0,  999.0,  999.0,  999.0,  999.0,  999.0,  999.0,  999.0,  999.0,  999.0,  999.0,  999.0,  999.0,  999.0
2000/12/26 00:40,  999.0,    2.0,    3.9,    2.0,   -2.3,   -0.1,   -0.6,    3.7,   -1.4,    3.0,    4.1,  999.0,  999.0,  999.0,  999.0,  999.0,  999.0,  999.0,  999.0,  999.0,  999.0,  999.0,  999.0,  999.0,  999.0,  999.0,  999.0,  999.0,  999.0,  999.0,  999.0,  999.0,  999.0,  999.0,  999.0,  999.0,  999.0,  999.0,  999.0,  999.0,  999.0,  999.0,  999.0,  999.0,  999.0,  999.0,  999.0,  999.0,  999.0,  999.0,  999.0,  999.0,  999.0,  999.0,  999.0,  999.0,  999.0,  999.0
2000/12/26 00:50,  999.0,    3.1,    2.2,    3.2,    1.7,    1.0,  999.0,    8.8,    5.2,    5.3,  999.0,  999.0,  999.0,  999.0,   -3.6,  999.0,  999.0,  999.0,  999.0,  999.0,  999.0,  999.0,  999.0,  999.0,  999.0,  999.0,  999.0,  999.0,  999.0,  999.0,  999.0,  999.0,  999.0,  999.0,  999.0,  999.0,  999.0,  999.0,  999.0,  999.0,  999.0,  999.0,  999.0,  999.0,  999.0,  999.0,  999.0,  999.0,  999.0,  999.0,  999.0,  999.0,  999.0,  999.0,  999.0,  999.0,  999.0,  999.0
2000/12/26 01:00,  999.0,    1.9,    2.3,    2.2,    1.0,   -0.3,    1.7,    3.8,   -0.0,   -0.0,   -0.3,   -9.9,  -21.5,  999.0,  -21.6,  999.0,  -22.4,  999.0,  -21.6,  -21.5,  -22.1,  -21.5,  -22.1,  999.0,  999.0,  999.0,  999.0,  999.0,  999.0,  -21.5,  999.0,  999.0,  999.0,  999.0,  999.0,  999.0,  -21.1,  999.0,  999.0,  999.0,  999.0,  -21.4,  999.0,  -20.9,  999.0,  999.0,  -20.3,  999.0,  999.0,  999.0,  999.0,  -20.6,  999.0,  999.0,  -20.7,  999.0,  999.0,  999.0
2000/12/26 01:10,  999.0,   -0.4,    2.9,    1.2,    1.4,    3.3,   -3.4,    5.5,    6.0,    5.0,    2.8,    6.1,    5.1,  999.0,  999.0,  999.0,  999.0,  999.0,  999.0,    1.3,    0.9,  999.0,  999.0,  999.0,  999.0,  999.0,  999.0,  999.0,  999.0,  999.0,  999.0,  999.0,  999.0,  999.0,  999.0,  999.0,  999.0,  999.0,  999.0,  999.0,  999.0,  999.0,  999.0,  999.0,  999.0,  999.0,  999.0,  999.0,  999.0,  999.0,  999.0,  999.0,  999.0,  999.0,  999.0,  999.0,  999.0,  999.0
2000/12/26 01:20,  999.0,  999.0,  999.0,    5.3,    1.8,    1.4,    3.0,    4.5,    4.9,    5.1,  999.0,  999.0,  999.0,  999.0,  999.0,  999.0,  999.0,  999.0,  999.0,  999.0,  999.0,  999.0,  999.0,  999.0,  999.0,  999.0,  999.0,  999.0,  999.0,  999.0,  999.0,  999.0,  999.0,  999.0,  999.0,  999.0,  999.0,  999.0,  999.0,  999.0,  999.0,  999.0,  999.0,  999.0,  999.0,  999.0,  999.0,  999.0,  999.0,  999.0,  999.0,  999.0,  999.0,  999.0,  999.0,  999.0,  999.0,  999.0
2000/12/26 01:30,  999.0,  999.0,    2.8,    6.8,   -0.9,  999.0,    3.0,    5.3,    4.1,    8.2,    6.2,  999.0,  999.0,    6.4,  999.0,  999.0,  999.0,  999.0,  999.0,  999.0,  999.0,  999.0,  999.0,  999.0,  999.0,  999.0,  999.0,  999.0,  999.0,  999.0,  999.0,  999.0,  999.0,  999.0,  999.0,  999.0,  999.0,  999.0,  999.0,  999.0,  999.0,  999.0,  999.0,  999.0,  999.0,  999.0,  999.0,  999.0,  999.0,  999.0,  999.0,  999.0,  999.0,  999.0,  999.0,  999.0,  999.0,  999.0
2000/12/26 01:40,  999.0,    1.0,    1.2,    1.7,    2.2,    4.4,    1.3,    4.6,    5.4,    6.0,    7.8,    8.1,  999.0,    9.2,  999.0,  999.0,  999.0,  999.0,  999.0,  999.0,   23.0,  999.0,  999.0,  999.0,  999.0,  999.0,  999.0,  999.0,  999.0,  999.0,   35.0,   36.5,   37.0,   38.3,  999.0,  999.0,  999.0,   42.4,   43.6,  999.0,  999.0,   42.0,  999.0,  999.0,  999.0,  999.0,  999.0,  999.0,   41.2,  999.0,   41.1,   42.8,   41.4,  999.0,  999.0,   42.2,   43.3,  999.0
2000/12/26 01:50,  999.0,   11.6,  999.0,    3.4,    7.4,    4.8,    5.1,    2.9,    6.8,    7.2,   10.9,  999.0,    4.0,  999.0,  999.0,   21.1,  999.0,  999.0,   20.6,   23.2,  999.0,  999.0,   27.4,   27.6,   29.5,   30.1,   31.2,  999.0,  999.0,   34.9,   35.1,   36.4,   38.6,  999.0,   41.2,   41.3,   41.1,  999.0,   41.5,   42.2,   41.9,   41.9,   42.3,   41.9,   42.2,  999.0,   42.6,   19.7,   41.6,   41.6,  999.0,   20.8,   -1.4,   20.6,   20.2,   41.5,  999.0,   42.5
2000/12/26 02:00,  999.0,  999.0,    2.7,    2.5,    2.5,    7.2,  999.0,  999.0,    5.2,    6.1,  999.0,  999.0,  999.0,   20.3,  999.0,   12.6,  999.0,  999.0,  999.0,  999.0,   26.1,   25.7,   28.0,   28.7,   32.9,   32.2,   33.2,  999.0,   34.3,   36.7,   38.1,  999.0,   39.8,   41.6,   41.7,   41.3,   42.0,  999.0,   42.4,   41.7,   41.7,   42.1,   42.1,  999.0,   42.7,   42.0,   42.3,   42.3,   42.6,   42.9,   41.8,   41.7,   42.5,  999.0,   42.4,   42.1,   41.9,   42.1
2000/12/26 02:10,  999.0,  999.0,    6.1,    3.5,    4.7,    7.0,    8.4,    6.6,    7.6,  999.0,  999.0,  999.0,  999.0,  999.0,  999.0,  999.0,    9.8,  999.0,   23.7,   23.6,   27.1,   27.4,   32.2,  999.0,   30.7,   31.8,  999.0,   34.3,  999.0,   38.6,   43.1,  999.0,   42.5,  999.0,   42.7,  999.0,   42.1,   42.3,   41.4,   41.8,   42.0,   42.1,   41.6,   41.5,  999.0,   42.1,   41.8,   42.0,  999.0,   41.5,   41.5,   42.3,   41.6,   42.2,   41.7,   40.6,   41.7,   41.7
2000/12/26 02:20,  999.0,  999.0,  999.0,    0.0,   -0.7,    2.8,    3.7,   -0.9,  999.0,  999.0,  999.0,   10.1,  999.0,  999.0,  999.0,  999.0,   20.5,    8.8,   15.3,  999.0,  999.0,  999.0,  999.0,  999.0,   30.8,  999.0,  999.0,   34.4,  999.0,  999.0,   37.9,  999.0,   39.9,   41.7,  999.0,   41.5,  999.0,  999.0,   41.4,  999.0,  999.0,  999.0,  999.0,  999.0,  999.0,   42.2,  999.0,  999.0,  999.0,  999.0,  999.0,   42.4,  999.0,  999.0,  999.0,  999.0,  999.0,  999.0
2000/12/26 02:30,  999.0,    3.3,    1.6,    6.4,    0.9,    6.6,    4.7,    1.2,    3.6,    1.8,   -2.2,  999.0,  999.0,  999.0,   -0.3,  999.0,  999.0,  999.0,  999.0,  999.0,  999.0,  999.0,  999.0,  999.0,  999.0,  999.0,  999.0,  999.0,  999.0,  999.0,  999.0,  999.0,  999.0,  999.0,  999.0,  999.0,  999.0,  999.0,  999.0,  999.0,  999.0,  999.0,  999.0,  999.0,  999.0,  999.0,  999.0,  999.0,  999.0,  999.0,  999.0,  999.0,  999.0,  999.0,  999.0,  999.0,  999.0,  999.0
2000/12/26 02:40,  999.0,  999.0,  999.0,  999.0,  999.0,  999.0,   10.2,    7.1,  -22.5,  999.0,  -21.5,  999.0,  999.0,  -21.9,  -21.2,  999.0,  999.0,  999.0,    2.2,  999.0,  999.0,  999.0,  999.0,  999.0,  999.0,  999.0,  999.0,  999.0,  999.0,  999.0,  999.0,  999.0,  999.0,  999.0,  999.0,  999.0,  999.0,  999.0,  999.0,  999.0,  999.0,  999.0,  999.0,  999.0,  999.0,  999.0,   21.3,  999.0,  999.0,   21.5,   21.3,  999.0,   21.8,  999.0,  999.0,  999.0,  999.0,  999.0
2000/12/26 02:50,  999.0,  999.0,  999.0,    7.1,    0.9,    1.9,    5.0,   -4.3,    5.3,  999.0,    6.9,    7.2,    7.9,  999.0,    7.0,  999.0,  999.0,    0.8,    6.7,  999.0,  999.0,  999.0,  999.0,  999.0,  999.0,  999.0,    7.0,  999.0,  999.0,   11.1,  999.0,   10.1,   14.0,  999.0,    1.0,   11.8,    1.0,  999.0,   10.2,  999.0,  999.0,    0.3,    8.9,    5.0,  -11.9,    7.4,    6.1,    5.2,    4.6,    4.3,    4.6,    4.9,    0.8,  999.0,    1.1,    1.0,    0.5,    0.9
2000/12/26 03:00,  999.0,    7.9,    9.7,    9.8,   15.2,   14.6,   10.3,   10.0,   21.1,  999.0,  999.0,  999.0,  999.0,  999.0,    1.4,  999.0,  999.0,  999.0,  999.0,  999.0,  999.0,  999.0,  999.0,  999.0,  999.0,  999.0,  999.0,  999.0,  999.0,  999.0,  999.0,   12.9,  999.0,  999.0,  999.0,  999.0,   11.2,   10.2,  999.0,  999.0,    9.7,  999.0,  999.0,  999.0,  999.0,    6.8,  999.0,    6.3,  999.0,  999.0,  999.0,    4.5,    3.3,  999.0,  999.0,  999.0,    2.5,  999.0
2000/12/26 03:10,  999.0,    6.6,    5.3,    7.4,    8.2,   11.6,    7.7,    9.0,  999.0,  999.0,  999.0,  999.0,  999.0,  999.0,  999.0,  999.0,  999.0,  999.0,  999.0,  999.0,  999.0,  999.0,  999.0,  999.0,  999.0,  999.0,   18.5,  999.0,  999.0,   16.1,  999.0,   15.0,  999.0,   13.5,   13.8,   12.7,   12.0,  999.0,  999.0,  999.0,    9.8,  999.0,  999.0,  999.0,    7.1,    6.7,    6.1,    5.6,    5.4,  999.0,  999.0,  999.0,  999.0,  999.0,  999.0,    1.6,  999.0,    0.3
2000/12/26 03:20,  999.0,    3.3,  999.0,  999.0,    7.9,  999.0,    4.9,    8.8,    9.2,  999.0,  999.0,  999.0,    5.5,  999.0,    2.3,  999.0,  999.0,  999.0,  999.0,  999.0,  999.0,  999.0,  999.0,  999.0,  999.0,  999.0,  999.0,  999.0,  999.0,  999.0,  999.0,  999.0,  999.0,  999.0,  999.0,  999.0,  999.0,  999.0,  999.0,  999.0,  999.0,  999.0,  999.0,  999.0,  999.0,  999.0,  999.0,  999.0,  999.0,  999.0,  999.0,  999.0,  999.0,  999.0,  999.0,  999.0,  999.0,  999.0
2000/12/26 03:30,  999.0,  999.0,  999.0,    1.9,    5.8,    8.1,    7.7,    7.3,    6.9,    9.4,   10.3,  999.0,  999.0,    8.9,  999.0,    2.9,  999.0,  999.0,  999.0,  999.0,  999.0,  999.0,  999.0,  999.0,  999.0,  999.0,  999.0,  999.0,  999.0,  999.0,  999.0,  999.0,  999.0,  999.0,  999.0,  999.0,  999.0,  999.0,  999.0,  999.0,  999.0,  999.0,  999.0,  999.0,  999.0,  999.0,  999.0,  999.0,  999.0,  999.0,  999.0,  999.0,  999.0,  999.0,  999.0,  999.0,  999.0,  999.0
2000/12/26 03:40,  999.0,  999.0,  999.0,    8.2,  999.0,    7.1,    5.3,    1.1,    6.7,  999.0,  999.0,    7.9,  999.0,  999.0,   17.1,   18.4,  999.0,  999.0,  999.0,  999.0,  999.0,  999.0,  999.0,  999.0,  999.0,  999.0,  999.0,  999.0,  999.0,  999.0,  999.0,  999.0,  999.0,  999.0,  999.0,  999.0,  999.0,  999.0,  999.0,  999.0,  999.0,  999.0,  999.0,  999.0,  999.0,  999.0,  999.0,  999.0,  999.0,  999.0,  999.0,  999.0,  999.0,  999.0,  999.0,  999.0,  999.0,  999.0
2000/12/26 03:50,  999.0,  999.0,    6.6,  999.0,    4.7,    7.6,   -1.8,  999.0,    2.2,  999.0,  999.0,  999.0,  999.0,  999.0,  999.0,  999.0,  999.0,  999.0,  999.0,  999.0,  999.0,    4.7,  999.0,  999.0,  999.0,  999.0,  999.0,  999.0,  999.0,  999.0,  999.0,  999.0,  999.0,  999.0,  999.0,  999.0,  999.0,  999.0,  999.0,  999.0,  999.0,  999.0,  999.0,  999.0,  999.0,  999.0,  999.0,  999.0,  999.0,  999.0,  999.0,  999.0,  999.0,  999.0,  999.0,  999.0,  999.0,  999.0
2000/12/26 04:00,  999.0,  999.0,  999.0,  999.0,    3.0,    9.3,   17.3,   19.0,    9.4,  999.0,   16.4,   24.1,   24.2,   21.1,    4.8,  999.0,  999.0,  999.0,  999.0,  999.0,    4.2,  999.0,  999.0,   11.3,  999.0,  999.0,  999.0,  999.0,  999.0,  999.0,  999.0,  999.0,  999.0,  999.0,  999.0,  999.0,  999.0,  999.0,  999.0,  999.0,  999.0,  999.0,  999.0,  999.0,  999.0,  999.0,  999.0,  999.0,  999.0,  999.0,  999.0,  999.0,  999.0,  999.0,  999.0,  999.0,  999.0,  999.0
2000/12/26 04:10,  999.0,  999.0,  999.0,    5.2,    6.0,    6.5,    7.2,    5.6,    4.0,    3.6,  999.0,    9.4,  999.0,  999.0,  999.0,  999.0,  999.0,  999.0,  999.0,  999.0,  999.0,  999.0,  999.0,  999.0,  999.0,  999.0,  999.0,  999.0,  999.0,  999.0,  999.0,  999.0,  999.0,  999.0,  999.0,  999.0,  999.0,  999.0,  999.0,  999.0,  999.0,  999.0,  999.0,  999.0,  999.0,  999.0,  999.0,  999.0,  999.0,  999.0,  999.0,  999.0,  999.0,  999.0,  999.0,  999.0,  999.0,  999.0
2000/12/26 04:20,  999.0,  999.0,  999.0,  999.0,    3.8,    2.9,    5.6,  999.0,  999.0,    4.0,   15.5,  999.0,   21.4,   21.2,   21.3,  999.0,  999.0,  999.0,   21.1,   21.1,  999.0,   20.5,   20.0,  999.0,  999.0,   21.0,  999.0,  999.0,  999.0,  999.0,  999.0,  999.0,  999.0,  999.0,  999.0,  999.0,  999.0,  999.0,  999.0,  999.0,  999.0,  999.0,  999.0,  999.0,  999.0,  999.0,  999.0,  999.0,  999.0,  999.0,  999.0,  999.0,  999.0,  999.0,  999.0,  999.0,  999.0,  999.0
2000/12/26 04:30,  999.0,    2.4,    1.5,    1.7,    3.4,    6.1,    5.9,    1.7,   -1.1,    2.2,   -1.7,    1.1,    0.9,  999.0,  999.0,  999.0,  999.0,  999.0,  999.0,  999.0,  999.0,  999.0,  999.0,  999.0,  999.0,  999.0,  999.0,  999.0,  999.0,  999.0,  999.0,  999.0,  999.0,  999.0,  999.0,  999.0,  999.0,  999.0,  999.0,  999.0,  999.0,  999.0,  999.0,  999.0,  999.0,  999.0,  999.0,  999.0,  999.0,  999.0,  999.0,  999.0,  999.0,  999.0,  999.0,  999.0,  999.0,  999.0
2000/12/26 04:40,  999.0,  999.0,    1.3,    5.4,    3.1,    4.2,    2.5,   -0.8,    4.8,  999.0,    2.9,    1.5,   -1.7,    0.2,  999.0,   21.4,  999.0,  999.0,  999.0,   21.4,   21.7,  999.0,  999.0,  999.0,  999.0,  999.0,  999.0,  999.0,  999.0,  999.0,  999.0,  999.0,  999.0,  999.0,  999.0,  999.0,  999.0,  999.0,  999.0,  999.0,  999.0,  999.0,  999.0,  999.0,  999.0,  999.0,  999.0,  999.0,  999.0,  999.0,  999.0,  999.0,  999.0,  999.0,  999.0,  999.0,  999.0,  999.0
2000/12/26 04:50,  999.0,  999.0,    6.4,   -0.6,    5.0,    4.1,    3.2,    3.9,    1.8,    4.6,  999.0,  999.0,   -1.7,    0.1,    1.6,  999.0,  999.0,  999.0,  999.0,  999.0,  999.0,  999.0,  999.0,  999.0,  999.0,  999.0,  999.0,  999.0,  999.0,  999.0,  999.0,  999.0,  999.0,  999.0,  999.0,  999.0,  999.0,  999.0,  999.0,  999.0,  999.0,  999.0,  999.0,  999.0,  999.0,  999.0,  999.0,  999.0,  999.0,  999.0,  999.0,  999.0,  999.0,  999.0,  999.0,  999.0,  999.0,  999.0
2000/12/26 05:00,  999.0,  999.0,  999.0,    3.9,    3.5,    5.2,    7.6,    7.5,    7.4,    4.4,    4.5,    5.0,    6.1,  999.0,  999.0,  999.0,  999.0,  999.0,  999.0,  999.0,  999.0,  999.0,  999.0,  999.0,  999.0,  999.0,  999.0,  999.0,  999.0,  999.0,  999.0,  999.0,  999.0,  999.0,  999.0,  999.0,  999.0,  999.0,  999.0,  999.0,  999.0,  999.0,  999.0,  999.0,  999.0,  999.0,  999.0,  999.0,  999.0,  999.0,  999.0,  999.0,  999.0,  999.0,  999.0,  999.0,  999.0,  999.0
2000/12/26 05:10,  999.0,  999.0,  999.0,  999.0,    4.4,    7.1,    6.6,    5.6,    6.2,    5.9,    6.1,    7.3,    7.2,    5.7,  999.0,  999.0,  -22.1,  999.0,  999.0,  999.0,  999.0,  -20.9,  999.0,  999.0,  999.0,  999.0,  999.0,  999.0,  999.0,  999.0,  999.0,  999.0,  999.0,  999.0,  999.0,  999.0,  999.0,  999.0,  999.0,  999.0,  999.0,  999.0,  999.0,  999.0,  999.0,  999.0,  999.0,  999.0,  999.0,  999.0,  999.0,  999.0,  999.0,  999.0,  999.0,  999.0,  999.0,  999.0
2000/12/26 05:20,  999.0,  999.0,  999.0,    3.7,    4.9,    5.3,    6.0,    5.2,    6.6,    7.1,    6.8,    7.9,    6.7,    6.1,    6.0,    6.3,    6.6,    6.9,    7.9,  999.0,  999.0,  999.0,  999.0,  999.0,    3.0,  999.0,  999.0,  999.0,  999.0,  999.0,  999.0,  999.0,  999.0,  999.0,  999.0,  999.0,  999.0,  999.0,  999.0,  999.0,  999.0,  999.0,  999.0,  999.0,  999.0,  999.0,  999.0,  999.0,  999.0,  999.0,  999.0,  999.0,  999.0,  999.0,  999.0,  999.0,  999.0,  999.0
2000/12/26 05:30,  999.0,  999.0,  999.0,  999.0,    5.8,    6.4,    6.5,    8.3,   13.0,    8.6,    9.5,    7.6,    9.6,    8.9,    7.8,    6.0,    6.5,    7.1,    7.2,    6.1,  999.0,  999.0,  999.0,  999.0,  999.0,  999.0,  999.0,  999.0,  999.0,  999.0,  999.0,  999.0,  999.0,  999.0,  999.0,  999.0,  999.0,  999.0,  999.0,  999.0,  999.0,  999.0,  999.0,  -33.4,  999.0,  -34.5,  999.0,  999.0,  999.0,  999.0,  999.0,  -37.4,  -20.9,  999.0,  999.0,  -39.8,  999.0,  999.0
2000/12/26 05:40,  999.0,  999.0,  999.0,   -1.4,  999.0,  999.0,    4.3,    5.4,    6.1,    6.9,    4.5,    6.4,    7.5,  999.0,    6.5,    5.8,    6.7,    7.1,  999.0,    5.9,  999.0,  999.0,  999.0,  999.0,  999.0,  999.0,  999.0,  999.0,  999.0,  999.0,  999.0,  999.0,  999.0,  999.0,   23.1,  999.0,  999.0,  999.0,  999.0,  999.0,  999.0,    8.4,  999.0,  999.0,  999.0,  999.0,  999.0,  999.0,  999.0,  999.0,  999.0,  999.0,  999.0,  999.0,  999.0,  999.0,  999.0,  999.0
2000/12/26 05:50,  999.0,  999.0,  999.0,    4.2,    6.4,    6.0,    1.2,    3.5,    7.1,    8.0,    7.9,  999.0,  999.0,    5.5,    6.9,    4.6,    5.5,  999.0,    6.2,  999.0,  999.0,  999.0,  999.0,  999.0,  999.0,  999.0,  999.0,  999.0,  999.0,  999.0,  999.0,  999.0,  999.0,  999.0,  999.0,  999.0,  999.0,  999.0,  999.0,  999.0,  999.0,  999.0,  999.0,  999.0,  999.0,  999.0,  999.0,  999.0,  999.0,  999.0,  999.0,  999.0,  999.0,  999.0,  999.0,  999.0,  999.0,  999.0
2000/12/26 06:00,  999.0,  999.0,  999.0,    6.1,    6.2,    4.9,    3.3,    3.7,    5.7,    7.0,    4.4,    4.1,    5.0,    5.3,    7.3,  999.0,  999.0,  999.0,  999.0,  999.0,  999.0,  999.0,  999.0,  999.0,  999.0,  999.0,  999.0,  999.0,  999.0,   11.3,  999.0,  999.0,  999.0,  999.0,  999.0,  999.0,  999.0,  999.0,  999.0,  999.0,  999.0,  999.0,  999.0,  999.0,  999.0,  999.0,  999.0,   35.4,   37.6,   40.8,  999.0,  999.0,   42.6,   42.3,  999.0,   42.1,  999.0,   42.1
2000/12/26 06:10,  999.0,  999.0,    4.4,    0.3,    3.1,    2.6,    3.0,    2.3,    3.6,    4.3,    5.0,    5.0,    3.8,    3.8,    5.0,    4.9,    4.7,    4.9,  999.0,    4.8,  999.0,   10.0,  999.0,  999.0,  999.0,  999.0,  999.0,  999.0,  999.0,  999.0,  999.0,   29.6,  999.0,  999.0,  999.0,  999.0,   35.5,   36.0,  999.0,   40.3,  999.0,   40.0,   41.7,   41.3,   42.2,   41.8,   41.6,   41.6,   41.7,   41.7,   42.0,   41.9,   42.0,   41.6,   42.3,   42.0,   42.0,   41.8
2000/12/26 06:20,  999.0,  999.0,  999.0,    3.9,    1.5,    2.5,    2.9,    3.6,    5.6,    4.6,    4.8,    4.5,    4.1,    3.9,    3.8,    3.7,    4.8,    5.7,    4.4,    3.6,    4.2,    3.1,    5.0,    5.6,  999.0,  999.0,  999.0,  999.0,   10.2,  999.0,  999.0,    1.3,   15.7,   16.2,   17.0,   17.6,   35.6,   19.1,    0.8,   41.4,   27.0,   21.5,   12.2,   30.7,   42.0,   42.5,   41.6,   42.3,   42.2,   41.4,   41.6,  999.0,   41.7,   41.7,   41.1,   42.5,   41.9,   41.6
2000/12/26 06:30,  999.0,  999.0,   -0.6,    4.2,    5.8,    7.4,    7.2,    5.7,    7.5,    6.2,    5.6,    5.3,  999.0,    4.7,    4.7,    4.2,    3.4,    3.6,    3.1,    2.7,    2.8,    2.9,    3.4,    3.8,    5.0,  999.0,  999.0,   16.6,  999.0,  999.0,  999.0,   29.6,   31.3,   34.3,   39.0,   37.6,   36.0,   41.0,   38.0,   41.4,   41.4,   41.8,   41.6,   42.0,   41.7,   41.9,   41.7,   41.8,   41.7,   41.8,   41.7,   42.2,   41.5,   41.6,   41.9,   42.0,   41.5,   41.9
2000/12/26 06:40,  999.0,  999.0,    3.2,    3.8,    4.7,    5.0,    5.4,    4.7,    1.4,    3.1,    1.3,    1.8,    2.1,    1.6,    2.6,    0.8,    0.9,    2.5,    2.8,    1.3,    2.9,   10.4,   10.9,   11.7,   16.3,  999.0,  999.0,  999.0,  999.0,  999.0,  999.0,  999.0,  999.0,   40.1,   41.8,   41.5,   42.0,   41.7,   41.1,  999.0,   42.4,  999.0,   42.3,   42.1,   42.2,  999.0,   41.7,   41.3,   41.7,   11.0,  -10.9,    4.4,   42.0,  999.0,   41.6,  999.0,   17.6,  999.0
2000/12/26 06:50,  999.0,    3.1,    4.0,    3.5,    3.0,    5.7,    6.2,    8.4,  999.0,    7.7,    6.6,    7.9,    8.2,  999.0,  999.0,  999.0,    5.0,  999.0,  999.0,    4.9,    5.9,    3.4,    3.7,  999.0,  999.0,  999.0,  999.0,  999.0,   29.1,   31.0,   33.2,   35.7,   37.4,   39.9,   41.6,   42.0,  999.0,   42.1,   42.1,   42.5,   41.9,   41.9,   42.2,   42.4,   41.6,   41.6,   41.7,   42.3,   42.0,   42.4,   42.4,   41.9,   41.8,   41.8,   41.9,   41.9,   41.9,   41.8
2000/12/26 07:00,   17.4,   14.0,   10.2,    7.9,   13.1,    8.7,    7.9,   20.6,  999.0,   18.2,    6.6,  999.0,  -16.9,  999.0,   24.0,   -0.2,   -0.1,   -3.6,  999.0,    4.5,    4.0,    4.1,    5.0,    4.3,  999.0,  999.0,  999.0,  999.0,  999.0,  999.0,  999.0,   35.2,   35.7,  999.0,  999.0,   40.9,   41.7,   42.0,   25.5,   27.1,   31.7,   42.2,   42.2,   41.8,   30.1,   42.3,   28.1,   42.2,   42.0,   42.0,   42.7,   39.0,   41.7,   42.2,   41.4,    1.0,   21.2,   28.2
2000/12/26 07:10,   17.2,   14.5,   12.6,    8.6,    3.8,   10.1,    7.6,    4.6,    4.1,    4.7,    6.6,    7.6,  999.0,  999.0,  999.0,  999.0,  999.0,  999.0,  999.0,  999.0,  999.0,  999.0,  999.0,  999.0,  999.0,  999.0,  999.0,   25.8,  999.0,  999.0,   34.2,   34.1,   37.2,  999.0,   36.3,   36.5,   39.1,   39.0,   42.2,   41.9,   41.5,  999.0,  999.0,   41.8,   41.9,   42.1,   42.0,   41.2,   41.8,   41.9,   41.5,   41.4,   41.4,  999.0,   41.9,   42.1,   41.6,   42.1
2000/12/26 07:20,   18.3,   17.6,    6.6,    7.5,    3.4,    6.7,  999.0,  999.0,   10.6,    8.1,  999.0,  999.0,    9.9,  999.0,    9.2,    4.9,  999.0,  999.0,    4.7,  999.0,  999.0,  999.0,  999.0,   12.7,   20.6,   22.5,  999.0,  999.0,   28.7,   31.3,   32.6,   34.3,   35.9,   38.3,   39.6,   41.3,   41.7,   41.9,   41.5,   42.0,   41.5,   42.8,   41.9,   41.7,   41.9,   42.0,   41.5,   42.0,   41.7,   42.0,   42.0,   41.6,   41.6,   41.6,   41.8,   42.3,   41.8,   42.0
2000/12/26 07:30,   20.0,   16.6,   15.4,   12.5,    9.4,    7.0,    4.0,    4.1,    4.7,    7.6,  999.0,  999.0,  999.0,  999.0,  999.0,   13.7,  999.0,  999.0,  999.0,  999.0,  999.0,  999.0,  999.0,   21.1,   29.1,   24.8,   32.3,   30.3,   30.2,   34.6,   34.9,  999.0,   37.7,   38.9,   40.2,   38.1,   41.1,   41.4,   41.6,   41.7,   41.8,   41.7,   42.0,   41.7,  999.0,   41.5,   41.6,   41.8,   41.8,   42.3,   41.4,   41.7,   42.1,   42.2,   41.9,   42.0,   41.9,   41.7
2000/12/26 07:40,   17.8,   14.4,   13.3,   11.0,   12.5,    8.7,    8.0,    9.1,  999.0,    8.4,  999.0,  999.0,  999.0,  999.0,  999.0,  999.0,  999.0,   21.9,   21.1,   20.4,  999.0,  999.0,   21.2,   23.6,   23.5,   27.7,   31.4,   32.0,   34.3,   35.7,   41.1,   40.4,   41.1,   41.5,   41.7,   41.8,   41.9,   41.5,   41.6,   42.1,   41.4,   41.8,   41.3,   41.7,   41.5,   41.4,   41.9,   41.6,   42.0,   41.8,   41.5,   41.5,   42.0,   41.4,   41.9,   41.7,   41.5,   41.7
2000/12/26 07:50,   20.0,   17.2,   13.9,   11.4,    9.3,    6.6,    5.9,  999.0,    3.1,    5.8,    7.3,    8.3,  999.0,   12.4,  999.0,  999.0,  999.0,  999.0,  999.0,  999.0,  999.0,  999.0,   21.8,   23.7,   26.7,   27.5,   29.9,   31.9,   35.4,   35.2,   39.9,   38.6,   39.1,   39.8,   42.0,   41.8,   41.8,   42.8,   42.1,   42.0,  999.0,   41.6,   41.4,   41.6,   41.9,   42.5,   42.1,   41.9,   42.0,   41.7,   42.1,   42.2,   41.9,   41.9,   42.3,   42.1,   42.4,  999.0
2000/12/26 08:00,   16.9,   11.2,    9.1,    4.9,    4.1,    5.1,    7.4,    7.2,    5.5,    7.1,    7.1,  999.0,  999.0,  999.0,  999.0,  999.0,  999.0,  999.0,  999.0,  999.0,  999.0,   20.1,   22.8,   26.9,   27.1,   29.1,   31.3,   32.6,   35.2,   37.7,  999.0,   42.7,   41.2,   41.8,  999.0,   41.9,   41.5,   42.1,   41.0,   41.8,   41.9,   41.9,   42.1,   42.4,   42.2,   41.9,   41.3,   42.6,  999.0,   42.2,   42.1,   41.7,   41.8,   42.0,   41.8,   41.7,   41.7,   42.1
2000/12/26 08:10,   17.8,   16.3,   15.7,   11.7,   12.3,    9.1,    7.3,    6.0,    5.7,    7.4,    4.4,    7.3,    9.0,    9.2,  999.0,  999.0,   23.8,  999.0,  999.0,   27.4,   28.2,   29.7,   26.8,   28.3,   33.0,   29.0,   35.7,   37.5,   38.2,   38.4,   38.0,   40.9,   41.8,   41.0,   41.7,   41.6,   41.9,   41.9,   42.7,   42.0,   41.7,   42.1,   42.2,   41.8,   42.6,   42.1,   41.6,   41.9,   41.6,   41.6,   41.6,   41.9,   41.6,   41.9,   42.0,   41.7,   42.1,   41.8
2000/12/26 08:20,   12.2,   11.6,    6.8,    3.9,    4.5,    6.9,    6.1,    4.5,    3.8,    5.1,  999.0,  999.0,  999.0,    9.1,  999.0,  999.0,  999.0,   22.2,  999.0,   22.6,   26.2,   22.7,   28.4,   17.8,   17.0,   -4.8,   15.6,    3.2,  999.0,  -28.3,   38.7,   19.3,   30.6,   41.6,   42.6,  999.0,   42.1,   41.9,   42.2,   42.7,  999.0,   42.0,   41.3,   42.5,   41.6,   41.5,   41.9,   42.4,   42.3,   42.3,   41.9,   41.5,   41.5,   41.4,   41.4,   21.3,   10.5,   41.2
2000/12/26 08:30,   17.5,   13.5,   10.2,    5.3,    3.3,    4.2,    7.4,    6.7,  999.0,  999.0,  999.0,  999.0,   21.3,   21.7,   20.3,   20.5,   22.3,   23.1,  999.0,   26.4,   28.0,   29.7,   29.8,   32.6,   33.7,   35.3,   36.5,   37.6,   39.2,   40.4,   41.7,   42.0,   42.1,  999.0,  999.0,   42.0,   41.8,   41.6,   42.2,   42.2,   42.0,   41.7,   42.1,   41.9,   41.9,   41.9,   41.6,   41.2,   42.5,   41.9,  999.0,  999.0,   42.6,   41.7,   41.7,   41.7,   41.8,   41.5
2000/12/26 08:40,   20.5,   15.1,    8.1,    6.5,    3.0,   16.1,    5.9,   13.0,   16.3,    7.9,   21.6,   21.5,   21.7,   21.7,   21.5,   22.1,   21.7,  999.0,   24.5,   24.6,  999.0,   27.9,   29.3,   29.7,   31.5,   35.3,   36.4,   38.9,   39.3,  999.0,  999.0,   29.9,   42.0,   42.3,   42.3,   42.2,   42.2,   41.7,   -0.5,   28.0,   20.0,   31.6,   20.8,   20.4,   31.1,  999.0,   42.2,   41.9,   20.4,   42.0,   41.7,   21.0,   28.1,   20.5,   41.9,   41.5,   42.0,   31.5
2000/12/26 08:50,   34.5,  999.0,   30.2,   25.9,   22.6,   21.2,   21.3,   21.7,   21.0,   20.7,   20.2,   20.9,   20.8,   21.0,   20.5,   21.0,   20.0,   19.7,   21.2,   21.3,   22.8,   25.0,   26.6,   28.0,   31.7,   31.9,   33.8,   35.2,   37.7,   39.0,   40.3,   42.0,   42.0,   41.9,   41.8,   42.1,   42.1,   41.8,   41.5,   41.9,   42.0,   42.1,   42.0,   41.5,   41.9,   42.2,   42.2,   42.4,   41.8,   41.9,   41.7,   41.6,   41.6,   42.1,   42.3,   42.1,   41.4,   42.0
2000/12/26 09:00,   15.9,    3.3,    4.8,    4.2,    3.3,    1.6,    4.5,   16.3,    5.6,   11.8,   21.5,   21.9,   20.3,   21.1,  999.0,   20.5,  999.0,  999.0,  999.0,   19.9,  999.0,   22.7,   24.6,   26.9,   30.9,  999.0,   33.2,   35.3,   38.2,   39.1,   41.3,   41.6,   42.0,   41.9,   42.0,   42.1,   41.2,  999.0,  999.0,   41.9,  999.0,   41.9,  999.0,   41.9,   41.5,   41.5,   42.1,  999.0,   41.8,   41.4,  999.0,   41.9,   41.7,  999.0,   41.7,   42.6,  999.0,   42.1
2000/12/26 09:10,  999.0,    0.4,    1.3,    1.3,    5.1,    5.8,    3.4,    3.2,    5.0,    6.3,    6.4,  999.0,  999.0,  999.0,  999.0,  999.0,    6.4,  999.0,   10.1,  999.0,  999.0,    6.9,    6.3,  999.0,  999.0,  999.0,  999.0,  999.0,  999.0,  999.0,  999.0,  999.0,  999.0,  999.0,  999.0,  999.0,  999.0,  999.0,   40.5,   41.0,  999.0,  999.0,  999.0,  999.0,   41.4,  999.0,  999.0,  999.0,  999.0,  999.0,   12.2,  999.0,  999.0,   35.0,  999.0,  999.0,  999.0,  999.0
2000/12/26 09:20,  999.0,    2.1,    2.1,    1.8,    3.5,    4.3,    4.3,    5.0,    4.8,    5.5,    7.1,  999.0,  999.0,  999.0,  999.0,   10.4,  999.0,  999.0,  999.0,  999.0,    2.9,    5.3,  999.0,  999.0,  999.0,   16.6,  999.0,   15.9,   14.2,   13.8,   13.8,   12.1,    6.5,   12.3,   11.0,   10.4,    7.9,    6.6,    7.2,    6.4,    7.6,  999.0,    7.4,    2.4,    4.8,  999.0,    3.8,  999.0,    1.9,    2.2,    0.6,    2.4,  999.0,    1.1,    1.4,  999.0,    0.8,    0.2
2000/12/26 09:30,  999.0,    0.6,   -0.2,    1.1,  999.0,    2.0,    2.0,    3.4,    4.4,    3.4,    4.7,    7.1,  999.0,  999.0,    3.2,    5.6,    5.5,  999.0,   10.5,  999.0,  999.0,  999.0,  999.0,   10.2,  999.0,  999.0,  999.0,  999.0,   10.8,  999.0,   10.0,   11.0,    7.7,    8.9,    7.0,    7.6,    5.3,    7.9,    4.2,    3.3,  999.0,    2.6,    1.7,  999.0,    2.4,    1.1,    0.9,    0.8,    0.5,    0.8,    0.7,    0.7,    0.7,    0.5,    1.4,    0.2,    0.1,    0.5
2000/12/26 09:40,  999.0,    0.6,   -0.5,    0.1,    2.1,    2.5,    2.5,    2.5,    3.8,    5.0,    3.0,  999.0,  999.0,  999.0,  999.0,   13.4,  999.0,  999.0,  999.0,  999.0,  999.0,  999.0,  999.0,  999.0,  999.0,   18.3,   17.7,   12.5,   14.8,   13.9,   15.1,   10.7,   11.2,    8.4,    8.4,    6.7,    4.4,    3.5,    1.7,    1.1,    0.8,    0.8,    0.6,    0.8,    0.1,    0.7,    0.7,    1.0,    0.3,  999.0,    0.4,    0.7,    0.7,    0.5,    1.1,    1.1,    0.6,  999.0
2000/12/26 09:50,  999.0,    1.7,    1.8,    1.5,    1.2,    2.4,    4.1,    3.5,    4.1,    6.1,    4.0,  999.0,    6.0,  999.0,  -21.8,  999.0,  -22.6,  999.0,  -27.1,   17.3,   -7.9,   15.1,  -11.6,  -39.7,  -17.0,   -7.1,  -16.2,   -9.4,    6.4,    0.3,  -17.5,   -7.2,    1.5,    0.1,   -6.4,    0.9,   14.5,   21.4,   15.1,    7.5,   11.0,   15.8,  999.0,    0.8,    9.1,   -0.3,    0.7,    0.9,    0.9,    0.6,    0.4,    0.3,    1.0,    0.9,    0.4,    0.8,  999.0,    0.9
2000/12/26 10:00,  999.0,    1.6,    3.3,    2.0,    2.5,    4.3,    4.4,    2.3,    1.3,  999.0,    6.3,    8.4,    6.7,    7.8,  999.0,  999.0,  999.0,   12.5,  999.0,    4.0,    0.7,    0.9,  999.0,  999.0,    0.4,  999.0,    5.7,    2.6,    3.2,    1.1,    0.3,    0.7,  999.0,    0.7,    1.2,    0.4,    0.4,    0.8,    0.4,    0.5,    0.6,    0.5,    0.3,    0.4,    0.7,    0.3,    0.8,    0.9,    0.7,    0.3,    0.8,    0.9,    3.9,   20.0,    1.2,   11.2,   16.1,   20.6
2000/12/26 10:10,  999.0,    1.0,    0.9,    0.1,    0.2,   -2.3,   -0.3,    1.4,    3.2,    3.8,    6.3,    6.4,  999.0,  999.0,  999.0,  999.0,  999.0,   18.5,  999.0,  999.0,   15.9,   15.1,   14.6,  999.0,   12.2,   11.3,   10.4,   10.1,    9.7,   -2.8,   -3.7,    4.9,    4.3,   -6.2,    3.3,  -16.9,   -8.9,    3.0,  -19.6,  -20.4,  999.0,    0.8,    0.9,  -41.7,   -9.5,    0.5,  -41.3,  -19.8,    1.0,  -41.8,    0.3,  -20.9,    0.3,  -10.4,   -9.9,    0.6,    1.0,   -9.8
2000/12/26 10:20,  999.0,   -0.1,    0.0,    1.4,    0.4,    1.5,    2.8,    2.9,    2.0,    1.8,    3.3,    3.2,   10.7,    3.9,   18.6,   18.9,   18.0,   18.8,   19.2,   16.8,  999.0,    9.5,   11.4,    5.3,    4.9,    0.9,    0.7,    0.7,    1.1,    1.0,    0.4,    0.8,    0.6,    1.0,    0.7,    0.9,    0.6,    0.6,    0.8,  999.0,    0.3,    0.6,    0.4,    1.1,  999.0,  999.0,    0.7,  999.0,    1.1,    0.4,    0.3,    0.7,    0.8,    0.7,    0.6,    1.0,    0.7,    0.6
2000/12/26 10:30,  999.0,    1.7,    2.0,    1.8,    2.4,    2.6,    2.2,    3.4,    3.2,    4.9,    3.6,  999.0,  999.0,    6.0,    4.2,  999.0,  999.0,   18.9,  999.0,  999.0,   19.5,   12.6,  999.0,    1.3,    0.6,    0.9,    1.4,    0.5,  999.0,  999.0,    0.5,    0.9,  999.0,    0.8,  999.0,    0.9,    1.4,  999.0,   34.3,   18.4,  999.0,  999.0,    3.8,   10.3,  999.0,  999.0,   14.5,  999.0,  999.0,  999.0,  999.0,   17.8,  999.0,   23.3,  999.0,  999.0,   20.7,  999.0
2000/12/26 10:40,  999.0,    3.1,    3.8,    3.6,    5.4,    5.1,    1.3,    4.4,    2.3,    2.4,    3.7,    3.8,    5.4,    6.0,  999.0,  999.0,  999.0,  999.0,  999.0,  999.0,  999.0,    0.8,  999.0,    0.7,    0.2,    0.3,    0.3,   -0.0,  999.0,  -11.0,  999.0,    0.5,    1.0,  999.0,  999.0,    1.1,  999.0,  999.0,    0.1,    0.3,    1.4,    0.6,  999.0,  999.0,    1.4,    0.8,  -20.5,    0.2,  -20.8,  -20.8,    0.4,    0.5,  -20.5,  -12.7,    0.8,  -20.7,    0.9,    0.2
2000/12/26 10:50,  999.0,    2.3,    4.4,    2.0,    2.4,    5.1,    3.1,    3.9,    4.2,    5.3,    4.6,    5.8,    5.0,  999.0,  999.0,    3.1,  999.0,  999.0,  999.0,  999.0,  999.0,  999.0,  999.0,  999.0,    3.0,    0.9,    0.5,    0.9,    0.6,    0.5,    0.9,    0.8,    0.8,    1.0,    0.6,    7.8,   17.9,   21.2,    0.9,   21.6,   12.6,    9.6,    0.4,    8.7,    1.1,    0.6,    0.8,    0.5,    0.7,    1.1,    0.9,   -0.0,    0.6,    0.7,    0.2,    0.5,    0.4,    1.0
2000/12/26 11:00,  999.0,    0.6,    1.5,    2.8,    6.5,    6.7,    3.0,    4.7,    7.9,    7.4,    5.0,    9.8,    5.2,  999.0,   21.2,  999.0,   21.3,  999.0,  999.0,  999.0,   14.0,   11.1,  -32.2,  -15.3,    2.5,   -0.2,    0.9,    5.1,  -20.5,    0.8,   -6.0,    0.6,  -20.5,    0.6,  -11.4,    3.5,    1.2,    1.1,    1.4,    6.3,    0.5,    7.4,    0.7,    5.0,   15.3,    0.8,    0.4,    3.8,    9.1,    0.2,  999.0,    1.3,   12.1,    1.2,    0.6,    0.8,   14.9,   11.7
2000/12/26 11:10,  999.0,    2.2,    1.2,    4.5,    4.1,    3.2,    3.8,    4.9,    4.5,    5.4,    5.3,    3.8,    4.6,    4.5,    5.4,   21.1,  999.0,  999.0,  999.0,   19.5,   18.0,   16.0,  999.0,   41.4,   41.3,   41.2,   41.8,  999.0,    3.1,    0.7,    1.8,    1.7,    7.7,  999.0,    0.4,   14.3,    1.3,    0.6,    8.0,   11.0,    0.8,   27.0,   17.4,    2.6,    0.8,    1.2,    0.9,    7.0,   12.5,   13.6,    0.4,   10.8,    7.3,    1.2,    0.9,    0.7,    0.8,    1.0
2000/12/26 11:20,  999.0,    1.2,    0.8,   -0.6,    2.4,    2.0,    4.3,    4.8,    1.4,    3.4,    2.7,    5.8,    3.1,   13.9,   14.5,   15.3,   21.6,   22.3,   21.6,   22.3,   23.4,   23.1,   25.6,   25.6,   27.7,   27.9,   30.2,   31.9,   34.5,   26.5,   34.5,   35.7,   36.8,   40.9,   38.6,   39.0,   39.9,   41.5,   42.2,   42.0,  999.0,   41.8,   41.2,  999.0,   41.8,  999.0,  999.0,   -0.7,    9.7,  -40.2,  -18.1,  -21.5,  999.0,   -4.7,  999.0,    0.6,  999.0,  -41.0
2000/12/26 11:30,  999.0,  999.0,    5.2,    2.0,    0.1,    3.4,    3.3,    3.8,    2.6,    3.7,    3.2,    3.6,    3.9,    3.6,    3.7,    4.5,    7.2,    4.9,  999.0,  999.0,   17.9,   24.0,   25.4,   27.8,   29.8,   31.7,   22.9,   27.1,   32.6,   33.4,   30.2,   31.4,   32.9,   42.0,  999.0,   41.7,   41.4,  999.0,   -3.4,  999.0,   20.7,   42.0,   20.5,   42.0,  999.0,  999.0,   20.0,   -1.0,   -0.9,   20.4,   13.7,   -0.8,   -1.0,   -0.7,   -0.6,   -0.5,    2.4,   -0.2
2000/12/26 11:40,  999.0,  999.0,    4.0,    2.8,    1.4,   -0.5,   -0.0,    1.0,    4.9,    4.5,    2.6,    3.3,    5.0,    5.6,    4.5,   -8.8,   10.2,   10.3,    6.3,   -0.4,   11.2,    2.3,  999.0,   -3.4,    3.9,  999.0,  -13.8,  -15.9,   17.9,   14.2,   10.0,   21.1,   33.3,   12.2,   13.0,   14.2,   18.0,   30.5,   39.0,  999.0,  999.0,   -0.5,   -6.1,   16.5,    6.9,   -6.6,  -39.1,   -1.0,  999.0,  -14.6,  -21.0,   -0.7,  -20.6,  -21.3,   -1.4,   -1.1,   -1.4,   -0.4
2000/12/26 11:50,  999.0,    2.0,    3.4,    2.5,    5.3,    3.0,    3.7,    4.2,    3.8,    5.1,    2.6,    2.9,    2.7,    8.5,    3.1,    0.1,    3.2,    4.9,    5.9,  999.0,  999.0,  999.0,  999.0,  999.0,  999.0,  999.0,  999.0,   17.0,    7.3,   14.3,    7.8,   11.8,    5.4,  999.0,    2.8,    2.9,  999.0,    0.6,    0.6,  999.0,  999.0,  999.0,  999.0,  999.0,    1.2,  -20.4,  999.0,    0.8,  -20.5,  -20.1,  999.0,    1.3,  999.0,  -20.2,  -12.8,  -31.6,  -31.0,  -16.1
2000/12/26 12:00,  999.0,    1.6,   -1.3,    2.1,    2.2,    6.2,    5.4,    4.8,    5.4,    4.3,    3.8,    2.7,    2.0,    2.2,    1.1,    2.9,    2.8,    3.3,    2.8,  999.0,  999.0,  999.0,    1.3,    1.1,  999.0,   13.8,   11.3,   -0.5,   -0.9,   -1.0,    2.7,  999.0,    1.1,    1.2,    0.8,    0.9,   -0.7,  999.0,  -21.0,   -2.7,   -1.6,  -20.9,  999.0,  -21.7,  -41.8,   -1.4,  -21.4,  -41.5,  -21.5,  -21.6,  -19.1,   -0.4,   -3.4,  -12.3,  -20.4,  -14.3,  -14.1,   -5.5
2000/12/26 12:10,  999.0,    0.4,    0.7,    1.5,    2.4,    3.8,    3.3,    2.8,    4.7,    4.1,    3.4,    2.1,    2.6,    4.0,    5.0,    3.2,    2.8,    3.2,    1.8,  999.0,  -21.4,  -19.7,  -19.4,  -18.2,  -15.4,  -15.1,    3.5,   -9.6,    7.6,   -4.8,   19.2,   20.6,   20.5,   -0.2,   13.1,   -0.7,   20.8,   13.1,   -0.6,   20.5,   13.8,   -0.7,   13.7,   13.4,   13.6,   20.9,   21.1,   13.4,   -0.4,   21.0,   13.4,   13.5,   13.4,   -0.3,  999.0,  999.0,  999.0,  999.0
2000/12/26 12:20,  999.0,  999.0,    2.9,    0.5,    5.6,    3.0,    0.7,   -0.2,    0.5,    2.2,    2.8,    3.0,    2.9,    3.8,    3.2,    4.8,    5.8,    5.3,    6.1,    6.0,    6.3,    5.5,    9.7,   27.7,   28.9,   24.7,   36.5,   41.4,   25.3,   35.4,   39.4,   28.1,   25.1,   26.8,   29.1,   30.8,   34.9,   41.9,   36.2,   14.0,   26.4,   27.5,   -3.2,   32.4,   39.8,   22.1,   13.8,   12.1,   15.3,    8.6,   16.7,   13.8,   18.7,   -3.6,   -1.8,    8.6,    6.9,   -6.4
2000/12/26 12:30,  999.0,    0.9,    1.2,    1.5,    1.3,    0.8,    2.3,    2.3,    3.0,    3.4,    3.7,    2.8,    3.1,    3.5,    3.7,    3.5,    4.8,    5.1,    4.1,    3.7,    4.0,    2.4,   -3.9,   22.1,   17.2,   28.6,   28.2,   28.2,   29.8,   40.9,   41.7,   34.8,   34.9,   39.4,   31.7,   35.7,   42.2,   30.7,   27.6,   37.6,   41.7,   41.8,   37.1,   42.2,   23.5,  999.0,   34.3,    5.3,   18.0,   33.3,   23.6,   29.0,   28.3,   17.1,   17.6,   10.5,    5.8,    1.0
2000/12/26 12:40,  999.0,    1.5,    1.9,    1.8,    0.7,    1.1,    1.0,    0.9,    1.9,    3.7,    2.9,    3.9,    4.1,    4.3,    4.2,    4.1,    2.6,    3.5,    1.9,    3.0,  999.0,  999.0,  999.0,   21.2,   26.7,   29.3,   31.4,   34.6,   38.1,   40.8,   40.0,   39.0,   41.4,   41.7,   41.5,   33.9,   34.4,   39.1,   41.9,   39.9,   26.3,   27.4,   25.3,   19.2,   16.9,   26.7,   17.1,   11.9,   13.5,   18.0,   11.0,    7.0,    7.9,    5.1,    5.4,    3.6,    2.4,    1.0
2000/12/26 12:50,  999.0,    0.8,    3.1,    1.5,    0.5,    5.0,    2.6,  -11.2,  -25.9,    5.6,    0.0,    5.0,    0.4,    0.5,    5.8,  -22.6,  -21.0,  999.0,    3.4,    2.1,    1.8,    2.9,  999.0,   24.9,   26.3,   28.9,   32.4,   27.7,   32.9,   40.2,   40.6,   41.5,   36.1,   34.6,   41.8,   33.7,   33.7,   29.6,   29.4,   33.4,   28.5,   36.2,   32.2,   32.7,   31.4,   30.9,   41.8,   41.5,   21.2,   19.1,   11.2,   16.9,    8.2,   34.1,    8.8,   -2.0,    8.1,    7.1
2000/12/26 13:00,  999.0,  999.0,    3.4,    2.4,    4.4,    0.5,    5.9,    5.1,    4.4,    4.9,    3.5,    5.3,    6.3,    6.3,    5.1,    4.1,    3.8,    1.5,    2.1,    2.9,    1.7,    2.1,    2.1,    2.2,   -1.2,   -1.7,   -1.4,   -0.1,   -9.6,   -5.5,   -9.3,    1.7,   21.2,  -23.6,    2.3,    3.1,  -22.3,    2.2,   -2.1,    4.4,  -18.8,    2.5,  -19.6,  999.0,   -4.2,   15.2,  -18.9,   -3.3,  -13.7,   -3.6,    7.7,  -10.4,   -2.8,  -10.9,  -20.6,   -5.9,  -11.2,   -5.4
2000/12/26 13:10,  999.0,    0.9,    4.9,    6.4,    6.7,   10.6,   10.9,   10.1,    9.2,    7.2,    6.7,    7.1,    6.2,    5.3,   -0.3,    5.2,    0.0,   -1.1,    4.9,   -4.7,   -7.5,  -16.5,  -11.6,    2.0,    1.4,  -22.8,  -23.6,  -13.7,  -13.9,  -12.9,  -13.2,  -11.6,  -12.7,  -11.8,   -1.5,  -13.0,  -15.6,  -18.5,  -18.4,  -19.4,  -21.5,  -29.1,  -18.6,  -12.9,  -17.4,  -16.6,  -21.0,  -20.2,  -21.6,  -25.6,  -26.5,  -31.4,  -41.8,  -41.0,  -32.4,  -31.7,  -21.4,  -27.2
2000/12/26 13:20,  999.0,    3.9,    4.6,    5.7,    5.0,    7.0,    6.0,    5.1,    4.6,    6.1,    6.6,    7.6,    8.0,    8.8,    9.2,    8.6,    7.1,    4.5,    5.0,    4.4,    4.4,    4.6,    3.9,    3.9,    3.1,    3.7,    3.1,    5.3,    4.8,    4.8,    5.4,    5.4,    4.7,    4.9,    5.1,    5.1,    5.0,    4.4,    3.5,    3.4,    2.9,    1.0,    1.4,   -0.5,   -2.3,   -6.3,   -5.2,   -4.0,   -4.4,   -5.5,  999.0,  999.0,  999.0,  -13.3,   -6.6,  -13.7,   -5.5,  -10.4
2000/12/26 13:30,  999.0,    3.5,    4.3,    5.5,    6.2,    5.9,    5.7,    5.9,    6.5,    7.1,    6.6,    6.2,    6.3,    4.5,    6.0,    8.7,    6.2,    4.8,    3.2,    3.5,    2.3,    0.8,    0.8,    0.5,  999.0,  999.0,  -11.2,  -17.7,  -13.3,  999.0,  -19.2,   -4.9,   -2.7,   -7.4,  -17.5,   -6.0,  -21.7,  -17.0,  -20.2,  -21.5,  -31.1,  -20.5,  -31.4,  -29.1,  -24.3,  -24.4,  -29.2,  -18.8,  -19.8,  -22.1,  -17.2,  -11.9,  -29.0,  -15.5,  -23.5,  -28.0,  -29.2,  999.0
2000/12/26 13:40,  999.0,    3.4,    2.1,    0.5,    4.6,    4.7,    5.3,    5.5,    4.1,    5.1,    4.7,    2.8,    3.2,    5.7,    5.6,    5.7,    5.0,    5.1,   -3.6,    4.6,    4.4,   -2.7,   -3.8,   -2.7,   -0.1,    1.8,   -0.1,    0.1,    0.2,    2.7,    1.5,    5.8,   -3.9,  999.0,    3.4,  999.0,   -0.2,   -5.4,   -4.9,   -7.7,  -14.1,  -20.0,  -13.6,   -6.8,   -8.1,   -6.7,  -10.3,  -14.5,  -16.9,  -18.8,  -21.6,  -21.0,  -20.7,  -20.9,  -19.6,  -17.3,  -14.1,  -10.9
2000/12/26 13:50,  999.0,    0.2,    1.8,    2.5,    4.0,    6.9,    2.5,    0.4,    1.0,    0.0,    8.1,    7.0,    5.6,    4.5,    3.5,    2.7,    2.6,   -3.2,   -2.8,   -3.2,   -4.0,    3.0,    2.1,    2.5,   -1.1,   -7.4,   -6.5,   -6.0,   -7.9,   -5.9,   -5.5,   -5.8,    0.8,   -4.7,   -5.9,   -1.2,   -5.9,   -6.8,   -0.4,   -0.4,   -0.1,  999.0,   -9.5,   -9.8,   -0.7,  999.0,   -1.3,   -1.2,   20.5,    0.2,   -7.3,  -20.2,    7.0,   20.7,  -20.4,  -20.6,  -21.5,  999.0
2000/12/26 14:00,    5.4,    2.5,    2.5,    3.5,    5.1,    6.1,    4.4,    7.4,    7.1,    8.5,    3.1,    6.9,    5.1,    6.7,    5.5,    4.4,    3.0,    1.7,    2.5,    5.4,    5.4,    6.4,    8.0,    3.8,    4.8,   11.1,   -2.5,  999.0,    2.4,   -4.6,    2.5,  999.0,   -0.4,   -0.5,   -0.7,   -1.5,  999.0,   -0.4,   -0.9,   -0.7,   -0.9,   -0.9,   -0.7,   -0.7,   -0.7,   -0.6,   -0.5,   -0.8,   -0.4,   -0.9,   -0.6,   -0.6,   -1.0,   -0.6,   -1.5,  999.0,  999.0,  999.0
2000/12/26 14:10,    4.6,    4.0,    7.8,    7.7,    6.1,   -0.1,   -5.1,   -9.5,   -5.9,  -13.7,  -11.1,   -3.8,   -3.3,   -1.9,   -2.2,   -6.7,   -5.3,    3.1,   -6.0,   -4.4,   -1.9,   -5.6,   -1.3,   -6.3,   -6.0,   -5.3,   -9.7,   -4.8,   -3.0,    6.8,   -1.9,    9.5,    5.4,    6.9,   -1.1,    1.0,   -0.6,   -1.5,  999.0,   -2.3,    1.0,    0.9,    5.2,    4.3,    2.7,  999.0,   -2.4,  999.0,   -2.1,   -1.5,   -1.6,    0.6,  999.0,   -0.9,    1.5,  999.0,  999.0,  999.0
2000/12/26 14:20,  999.0,    0.6,    2.9,    4.3,    5.1,    5.4,    5.0,    8.7,   13.8,    9.5,   10.0,    9.9,    8.1,    6.5,    6.4,    6.8,  999.0,  999.0,    7.4,   13.7,    9.6,    1.3,   19.7,   12.2,   -2.2,    0.0,  999.0,    2.5,  999.0,    1.5,   -1.8,   -0.8,    1.5,    3.0,  999.0,  999.0,  999.0,    2.8,   -0.6,  999.0,   -0.5,    4.0,    4.8,  999.0,    2.1,   -0.7,  999.0,  999.0,  999.0,  999.0,  999.0,  999.0,   -6.5,  999.0,  999.0,  999.0,  999.0,  999.0
2000/12/26 14:30,  999.0,    2.0,    1.3,   -3.0,   -2.7,   -3.5,    2.4,  999.0,  -21.0,   -3.5,   -0.8,   -0.3,   -2.4,   -4.7,   -9.8,   -4.5,  -14.6,  -14.9,   28.3,   20.0,   22.1,   -6.4,    4.9,   11.8,   24.8,   25.7,   29.0,   -1.4,   27.3,   -0.7,    9.7,   20.6,   -0.7,    9.8,   -0.7,   -0.2,   -0.9,   13.3,   -0.7,   -0.7,   -0.8,   -1.1,   -0.8,  999.0,   -0.5,   -0.9,   -1.0,   -0.9,  999.0,   -0.7,    6.2,   21.3,   -0.6,   42.2,   42.5,  999.0,   -1.1,   -0.3
2000/12/26 14:40,  999.0,    1.0,    2.6,    0.7,    0.6,    0.1,    0.1,   -0.9,   -0.2,   -0.6,  999.0,  999.0,   20.4,    6.8,    7.6,   14.1,  999.0,   23.5,   25.5,   27.0,   29.5,   32.3,   33.5,  999.0,  999.0,   19.0,  999.0,   41.5,    9.4,   -0.5,   -0.7,   -0.8,   -1.0,   -1.1,   -0.6,   -1.0,   -1.2,   -0.7,   -0.3,   -0.8,   -0.9,   -1.2,   -1.0,   -1.2,   -1.3,   -0.8,   -0.3,   -0.9,   -0.7,   -0.7,   -0.4,   -1.0,   -0.1,   -0.8,   -5.0,   -7.2,  -12.7,  -21.1
2000/12/26 14:50,  999.0,    1.5,    2.9,    4.6,    5.5,    5.7,    1.4,   10.7,    7.2,   15.3,  999.0,   11.5,    6.4,    6.9,  999.0,   13.5,   22.7,   15.3,   13.3,   41.6,   41.8,   24.0,    0.5,   42.1,   16.3,   16.9,  -24.4,   41.5,   -1.3,  -41.9,   -2.1,  -21.4,  -41.9,   -0.4,   -0.8,  -22.6,  -14.8,  -21.5,  -18.3,   -0.4,  -21.2,   -0.8,   -5.4,  -10.8,  -21.1,  -11.1,  -12.3,   -0.8,  -18.7,  -42.0,  -19.0,   -9.3,   -3.7,  -20.9,  -41.9,  -41.7,  -41.7,  -41.9
2000/12/26 15:00,  999.0,    4.3,    4.1,    5.2,    2.2,    8.2,   -0.4,    8.5,  999.0,   -4.4,   -4.8,   10.5,   10.5,  -12.3,    6.6,  -23.1,  -22.2,  -20.1,  999.0,  999.0,  999.0,   -8.1,   -5.3,   -2.5,   -0.7,   15.3,   15.8,   -1.3,   -0.1,   -2.9,   -2.4,   -2.1,  -17.7,   -3.7,  -15.9,  -27.0,  -14.7,  -20.1,  -15.3,  -32.6,   -4.0,  -23.8,  999.0,  -25.5,  -26.7,  -28.0,  -28.3,  -29.9,  -30.9,  -41.8,  -33.2,  -41.3,  -35.0,  -30.9,  -37.5,  -38.3,  -39.4,  -40.4
2000/12/26 15:10,  999.0,    1.5,    3.1,    5.5,    6.0,    7.5,    8.0,    9.4,    8.8,    8.2,    8.9,    9.0,    6.4,    6.6,    5.5,  999.0,   -0.4,  999.0,  999.0,   -3.1,  -21.0,    0.6,    0.8,  -21.5,   23.6,  -17.8,  -28.3,  -24.6,  -18.1,  -38.4,  -31.9,  -29.2,  -34.3,  -29.4,  -20.9,  -27.9,  -41.8,  -32.3,  -37.9,  -35.9,  -34.6,  -35.1,  -37.9,  -41.3,  -29.4,  -32.5,  -41.5,  -31.8,  -31.9,  -42.0,  -25.4,  -42.1,  -41.6,  -41.7,  -41.8,  -42.3,  -42.4,  -41.8
2000/12/26 15:20,  999.0,    4.0,    5.3,    6.3,    7.1,    7.8,    8.9,   10.2,    9.2,   10.1,  999.0,  999.0,   10.0,    7.5,    6.5,    7.4,  999.0,  999.0,  999.0,  999.0,  -14.3,  999.0,  999.0,  -30.1,  -30.7,  -34.5,  -34.0,  -35.8,  999.0,  -39.9,  999.0,  -40.9,  -41.9,  -41.6,  -41.8,  -41.7,  -41.7,  -41.7,  -41.8,  -41.5,  -41.6,  -41.7,  -42.0,  -41.8,  -41.4,  -41.5,  -41.3,  -41.8,  -41.8,  -41.7,  -41.9,  -42.3,  -41.5,  -41.5,  -41.9,  -42.7,  -41.6,  -41.7
2000/12/26 15:30,  999.0,    4.1,    3.9,    5.4,    6.4,    8.0,    8.3,    8.1,    7.8,    9.5,    9.2,  999.0,  999.0,  999.0,  999.0,    5.3,  999.0,  999.0,  999.0,  999.0,  -18.8,  999.0,  -24.8,  -27.1,  -30.0,  -31.6,  -33.1,  -34.2,  -36.2,  -37.6,  -38.3,  -40.4,  -41.5,  -41.9,  -41.8,  -41.8,  -41.9,  -42.0,  -41.6,  -41.9,  -41.9,  -41.5,  -41.7,  -42.0,  999.0,  -42.0,  -41.7,  -41.5,  -41.8,  -41.4,  -41.4,  -41.5,  -41.9,  -41.8,  -41.6,  -42.2,  -41.4,  -41.4
2000/12/26 15:40,  999.0,    2.5,    2.4,    5.5,    6.5,    7.2,    8.2,    8.6,    8.8,    7.1,    8.4,  999.0,    6.1,  999.0,  999.0,  999.0,  999.0,  999.0,  999.0,  999.0,  -27.6,  999.0,  -30.9,  -33.5,  -35.0,  -34.5,  -38.0,  -38.7,  -38.0,  -40.5,  -42.0,  -41.8,  -41.9,  -41.9,  -42.1,  -42.1,  -42.5,  -42.0,  999.0,  -41.9,  -41.9,  -42.0,  -41.3,  -41.9,  -41.8,  -41.7,  -42.0,  -42.3,  -42.0,  -41.8,  -41.8,  -41.9,  -41.9,  -42.0,  -41.8,  999.0,  -41.9,  -42.3
2000/12/26 15:50,  999.0,  999.0,    4.2,    6.4,    7.8,    8.5,    7.9,    8.6,    9.2,    9.2,  999.0,  999.0,  999.0,  999.0,  999.0,  999.0,  999.0,  999.0,  999.0,  999.0,  999.0,  999.0,  999.0,  -33.0,  -34.8,  -35.6,  -37.6,  -38.5,  -39.9,  -41.3,  -41.5,   -1.9,  -42.3,  -33.4,  -42.1,  -41.7,  -42.4,  -42.3,  999.0,  -41.9,  999.0,  -20.7,  -41.9,  -41.7,  -41.9,  -34.8,  -41.7,  -41.8,  -41.3,  -41.9,  -41.7,  -41.5,  -41.4,  -27.6,  -41.9,  -41.8,  -27.9,  -20.7
2000/12/26 16:00,  999.0,  999.0,    4.0,    6.7,    7.9,   10.8,   10.4,  999.0,  999.0,  999.0,  999.0,  999.0,  999.0,  999.0,  999.0,  999.0,  999.0,  999.0,  999.0,  999.0,  999.0,  999.0,  999.0,  -31.0,  -34.1,  -33.1,  999.0,  -40.2,  -39.4,  -39.8,  -40.7,  -40.8,  -40.8,  -41.0,  -41.9,  -41.8,  -41.6,  -42.1,  -41.8,  -41.9,  -41.8,  -42.0,  -41.5,  -42.0,  -41.8,  -41.7,  -41.4,  -41.7,  -41.4,  -41.8,  -41.5,  -41.8,  -41.8,  -41.6,  -41.7,  -40.5,  -41.7,  999.0
2000/12/26 16:10,  999.0,  999.0,  999.0,    7.9,    9.2,   10.9,  999.0,    7.4,   10.3,  999.0,  999.0,   21.3,    6.6,   13.6,    5.3,  999.0,   20.8,  999.0,   -2.3,  999.0,  -26.9,  -28.9,   -7.4,  999.0,   12.5,   10.8,  999.0,  -36.4,  -37.9,  999.0,    5.9,  -18.4,   -8.5,  -31.8,  -26.7,   -6.8,    1.1,   -6.4,  -16.1,    0.5,    0.7,   -8.3,   -0.4,  999.0,  -12.5,  -16.0,  -17.2,  999.0,  -20.9,  -21.8,  999.0,  -18.0,  999.0,  999.0,  999.0,  999.0,  -41.6,  -41.4
2000/12/26 16:20,  999.0,  999.0,    6.6,    7.2,    9.5,  999.0,  999.0,   15.4,   21.5,  999.0,  999.0,  999.0,   12.6,   21.5,  999.0,  999.0,   21.2,   21.9,   20.3,   22.6,   19.8,   10.1,    7.1,    7.6,    8.5,    6.2,  -14.4,    0.7,    0.6,  999.0,    4.8,    3.4,    0.5,    0.9,    1.2,    0.4,    1.1,    1.2,    0.7,    0.9,    0.7,    0.7,    1.0,    0.9,    0.5,  999.0,    0.8,    0.8,    0.8,    1.0,    1.1,    0.6,    0.6,    0.7,    4.3,    6.2,    0.7,    0.9
2000/12/26 16:30,  999.0,    3.0,   13.5,    7.2,    9.7,   20.4,   20.9,   21.4,  999.0,   21.4,  999.0,   21.1,   21.2,   13.1,   21.3,   21.9,   20.8,   21.0,   20.3,   18.7,   17.7,   21.6,   19.9,   19.5,   12.1,   10.1,    8.6,   22.2,   18.9,    1.1,    7.5,    9.5,    8.9,   10.8,   36.8,   21.4,    1.0,    1.0,   21.2,   41.7,   14.0,    0.2,    1.1,    0.8,    7.1,    3.3,   14.5,    0.8,   21.6,   13.4,    1.0,    0.9,    0.9,    1.3,    0.2,   -0.1,    0.2,    1.0
2000/12/26 16:40,  999.0,   11.4,    2.9,    7.2,    8.1,    8.8,   18.2,   21.8,   22.8,   21.2,   21.7,   18.3,   15.8,   13.1,   20.7,   21.7,   20.9,   20.9,   18.6,   18.0,   16.3,   14.7,   13.9,   12.6,    9.1,    9.6,    8.0,    6.0,    5.7,    3.2,    5.8,    2.6,    2.6,    0.8,    1.1,    0.9,  999.0,    0.5,   -7.2,    0.1,    0.0,    0.5,  999.0,    1.1,    0.8,  999.0,    0.7,    0.9,    0.9,    1.4,    0.8,    0.7,   -0.4,    0.7,    0.7,  999.0,    0.8,    0.4
2000/12/26 16:50,  999.0,   27.2,   23.6,   21.0,   18.6,  999.0,   20.2,   19.4,   21.3,   21.5,   21.1,  999.0,   21.1,   20.4,   20.9,   21.3,   21.1,   21.3,   20.8,   18.2,   15.6,   14.0,   12.6,   13.0,    8.9,    6.9,    3.1,    3.9,    2.6,    2.5,    0.8,    1.0,    0.7,    0.8,    0.9,    0.6,    0.8,    0.5,    0.7,    0.7,    0.8,    0.7,    0.8,    0.4,    0.5,    0.5,    0.9,    1.0,    0.7,    0.7,    0.4,   -0.1,    0.7,    0.7,    0.6,  999.0,    0.4,    0.7
2000/12/26 17:00,  999.0,  999.0,  999.0,   20.7,   20.6,   20.5,   21.5,   20.1,   20.7,   20.8,   20.9,   20.9,   20.5,   20.4,   20.3,   20.7,   20.6,   21.3,  999.0,   20.0,   19.4,   17.5,   15.9,   11.7,   10.3,   11.1,    8.0,    3.9,    5.3,    1.5,    1.1,    2.1,    1.1,    1.1,    0.7,    1.0,    0.7,    0.3,    0.5,    0.7,    1.0,    1.1,    1.0,    0.8,    1.1,    0.8,    0.7,    0.7,    0.8,  999.0,    0.4,    1.2,    1.0,    0.6,    0.5,    0.9,    1.1,    0.8
2000/12/26 17:10,  999.0,   20.8,  999.0,   20.7,   21.0,   20.9,   20.7,   20.2,   21.0,   20.9,   21.2,   21.0,   21.4,   21.2,   20.6,   20.8,   21.1,   21.1,   21.3,   18.8,   17.5,   14.4,   11.2,    9.5,   11.8,    9.4,    3.8,    3.5,    3.0,    2.5,    1.8,    0.6,    0.7,    0.6,    1.6,    0.8,    0.7,    0.8,    0.8,    0.9,    0.7,    0.8,    0.5,    0.6,    0.7,    0.8,    1.2,    0.7,    0.6,    0.5,    0.4,    0.5,  999.0,  999.0,    0.5,    1.3,    0.8,    0.6
2000/12/26 17:20,  999.0,   22.2,   21.8,   21.6,   21.0,   21.4,   20.2,   20.4,   20.9,   21.6,   22.7,   21.9,   20.9,   20.8,   20.3,   20.7,   21.2,   20.6,   20.5,  999.0,   17.3,   15.5,   13.8,   11.8,   10.3,    9.3,    7.2,    5.3,    4.3,    1.0,    0.6,    0.7,    0.4,    0.7,    0.4,    0.8,    0.5,    1.1,    0.8,    0.8,    1.0,    0.6,    0.6,    0.8,    0.7,    0.5,    0.9,    1.4,    1.1,    0.6,    0.9,    0.5,    0.5,   -0.3,   -0.1,  999.0,    0.9,    0.6
2000/12/26 17:30,  999.0,    9.6,   -0.5,   15.1,   12.7,   11.7,   12.3,   11.5,   21.0,   21.3,  999.0,   13.9,   21.4,    9.7,   21.0,   21.0,   22.0,  999.0,   19.9,  999.0,   17.5,   15.7,   14.1,   13.1,   10.4,   10.7,    7.5,  999.0,    4.0,    1.0,    2.8,    0.6,    0.9,  999.0,    0.3,    0.4,    0.9,    0.3,    1.5,  999.0,    1.3,    1.3,   -0.3,  999.0,    0.2,    1.5,    0.9,    1.2,    0.7,    0.0,    0.6,  999.0,    0.7,   -0.0,    1.2,    1.5,    1.3,    0.5
2000/12/26 17:40,  999.0,   -0.3,    1.4,    2.2,    2.1,    4.7,    3.7,    1.9,    0.3,  999.0,  999.0,  999.0,  999.0,  999.0,  999.0,  999.0,    3.8,  999.0,    1.1,  999.0,  999.0,  999.0,  999.0,  999.0,   12.9,   12.0,    7.6,    9.1,  999.0,    5.1,  999.0,    4.4,    3.1,    2.1,    1.8,    1.0,  999.0,    0.4,    0.5,    0.2,    0.7,  999.0,    0.0,   -0.4,    0.6,    0.4,    0.1,    1.0,  999.0,  999.0,    0.7,    0.7,    0.6,    0.7,    1.6,  999.0,  999.0,    1.4
2000/12/26 17:50,  999.0,   -1.3,   -1.5,    0.9,    1.4,    2.9,    3.1,    0.9,   -0.3,  999.0,  999.0,  999.0,  999.0,  999.0,  999.0,   20.8,  999.0,  999.0,  999.0,   18.6,  999.0,  999.0,   14.0,   10.2,   11.5,   11.1,    6.3,    6.6,    3.6,    1.5,    1.7,  999.0,    0.9,    0.8,    1.0,    0.6,    1.5,    0.7,    0.6,    0.5,    0.8,    0.6,    0.3,    0.9,   -0.1,    0.9,    0.2,    0.6,    0.6,  999.0,  999.0,    1.1,    1.6,    0.7,  999.0,    0.8,    0.6,  999.0
2000/12/26 18:00,  999.0,    0.8,    0.2,    0.5,    1.2,    1.3,    0.9,   -0.1,  999.0,  999.0,  999.0,  999.0,  999.0,  999.0,  999.0,  999.0,  999.0,  999.0,  999.0,  999.0,  999.0,  999.0,  999.0,   14.2,   12.9,   11.9,    8.3,    8.8,    8.0,    6.9,    4.0,  999.0,    2.1,  999.0,    0.8,    1.2,    0.2,  999.0,    0.8,    0.6,    0.0,  999.0,    0.2,   -0.4,    0.2,    1.1,    1.2,  999.0,    0.8,  999.0,    0.4,    0.3,    0.5,    0.8,    1.0,    0.9,  999.0,  999.0
2000/12/26 18:10,  999.0,   -0.6,   -0.7,    0.2,    1.6,    0.6,   -0.2,   -1.3,   -1.7,  999.0,  999.0,  999.0,  999.0,  999.0,  999.0,  999.0,  999.0,  999.0,  999.0,  999.0,  999.0,  999.0,  999.0,  999.0,   14.6,   10.5,   11.8,   10.7,    8.3,    8.0,    6.1,    6.1,  999.0,    4.1,    2.2,    1.4,  999.0,  999.0,    0.7,    0.8,    1.1,    0.4,  999.0,    0.7,    0.5,    0.6,    0.9,    0.5,    0.8,    0.6,    0.3,    1.2,  999.0,    0.6,  999.0,    0.2,    0.8,    0.8
2000/12/26 18:20,  999.0,   -0.9,   -0.9,   -0.9,    1.1,    0.7,   -0.5,   -1.8,   -1.7,   -1.3,   -0.5,   -0.3,  999.0,  999.0,   -0.0,    1.0,  999.0,  999.0,    1.6,    2.6,  999.0,  999.0,  999.0,  999.0,  999.0,  999.0,   11.0,    9.9,    8.3,    6.1,  999.0,  999.0,  999.0,  999.0,    1.4,    0.9,    0.7,    0.5,    0.3,    0.5,  999.0,    1.5,    1.1,    0.1,    0.7,    0.5,   -0.0,  999.0,    1.2,    1.2,    0.8,    0.7,  999.0,    0.6,    1.0,  999.0,  999.0,    0.6
2000/12/26 18:30,  999.0,   -1.3,   -0.8,   -1.2,    0.2,   -0.6,   -1.7,   -0.5,   -1.7,   -1.9,   -1.4,   -0.3,  999.0,  999.0,  999.0,  999.0,    0.8,  999.0,  999.0,    1.4,  999.0,  999.0,  999.0,  999.0,  999.0,   14.2,  999.0,   10.7,  999.0,  999.0,    9.0,    7.7,  999.0,    6.4,  999.0,    3.8,    2.5,    2.2,    1.8,  999.0,    0.9,  999.0,    0.9,    0.9,    0.8,    0.8,    0.7,    0.1,    0.5,    0.5,    0.7,    1.0,    0.8,  999.0,    0.5,    0.9,    0.6,    1.0
2000/12/26 18:40,  999.0,   -0.7,   -0.2,   -1.0,   -0.3,   -2.1,   -3.1,   -2.2,   -1.9,   -1.8,   -0.5,    0.2,  999.0,  999.0,   -0.0,    1.9,  999.0,    1.1,  999.0,  999.0,  999.0,  999.0,  999.0,  999.0,  999.0,  999.0,  999.0,  999.0,  999.0,  999.0,  999.0,    9.0,    7.5,    6.9,    5.7,    4.9,  999.0,    1.7,  999.0,  999.0,    1.0,    0.7,  999.0,  999.0,   -0.1,    0.8,  999.0,    0.7,    0.7,    0.4,    1.5,    1.1,    0.5,    0.4,    0.7,    0.8,  999.0,    0.1
2000/12/26 18:50,  999.0,   -0.3,   -1.2,    0.7,    2.1,   -3.1,   -3.1,   -3.6,   -1.8,   -1.3,   -0.3,   -0.1,    1.0,  999.0,    3.7,  999.0,    2.3,    2.5,  999.0,  999.0,  999.0,  999.0,  999.0,  999.0,  999.0,  999.0,  999.0,  999.0,  999.0,  999.0,  999.0,    9.6,  999.0,  999.0,    9.4,  999.0,  999.0,   10.7,  999.0,  999.0,  999.0,  999.0,    7.9,    1.3,    1.1,    6.8,    2.7,    5.3,    5.9,    4.1,    4.0,  999.0,    1.8,    1.4,  999.0,  999.0,  999.0,    1.0
2000/12/26 19:00,  999.0,    0.4,   -2.4,   -6.7,  999.0,  999.0,    3.2,    1.9,   -1.4,    0.3,    1.4,    1.5,  999.0,   14.2,  999.0,  999.0,  999.0,  999.0,  999.0,  999.0,  999.0,  999.0,  999.0,  999.0,   15.7,  999.0,  999.0,  999.0,   11.7,  999.0,  999.0,  999.0,  999.0,  999.0,  999.0,  999.0,  999.0,  999.0,  999.0,  999.0,  999.0,  999.0,  999.0,  999.0,  999.0,  999.0,  999.0,  999.0,  999.0,  999.0,  -20.9,  999.0,  999.0,  999.0,  999.0,  999.0,  999.0,  999.0
2000/12/26 19:10,  999.0,    2.5,    3.4,   -4.4,    0.6,    2.9,   -0.6,   -1.0,   -0.2,   -0.0,    1.7,    1.3,    0.6,    0.5,  999.0,    4.4,    5.3,  999.0,  999.0,  999.0,  999.0,  999.0,  999.0,  999.0,  999.0,  999.0,  999.0,  999.0,  999.0,  999.0,  999.0,  999.0,  999.0,  999.0,  999.0,  999.0,  999.0,  999.0,  999.0,  999.0,  999.0,  999.0,  999.0,  999.0,  999.0,  999.0,  999.0,  999.0,  999.0,  999.0,  999.0,  999.0,  999.0,  999.0,  999.0,  999.0,  999.0,  999.0
2000/12/26 19:20,  999.0,   -1.9,   -2.3,    0.2,    3.6,   -1.5,   -0.1,   -0.7,    1.8,    3.1,    2.5,    1.7,    2.0,    3.0,    3.8,  999.0,  999.0,  999.0,  999.0,  999.0,  999.0,  999.0,  999.0,  999.0,  999.0,  999.0,  999.0,  999.0,  999.0,  999.0,  999.0,  999.0,  999.0,  999.0,  999.0,  999.0,  999.0,  999.0,  999.0,  999.0,  999.0,  999.0,  999.0,  999.0,  999.0,  999.0,  999.0,  999.0,  999.0,  999.0,  999.0,  999.0,  999.0,  999.0,  999.0,  999.0,  999.0,  999.0
2000/12/26 19:30,  999.0,    0.7,    0.5,   -0.2,    1.6,    1.8,    1.5,   -0.1,    1.0,   -0.0,    0.8,    2.4,    2.3,    3.2,    4.1,  999.0,  999.0,  999.0,  999.0,  999.0,  999.0,  999.0,  999.0,  999.0,  999.0,  999.0,  999.0,  999.0,  999.0,  999.0,  999.0,  999.0,  999.0,  999.0,  999.0,  999.0,  999.0,  999.0,  999.0,  999.0,  999.0,  999.0,  999.0,  999.0,  999.0,  999.0,  999.0,  999.0,  999.0,  999.0,  999.0,  999.0,  999.0,  999.0,  999.0,  999.0,  999.0,  999.0
2000/12/26 19:40,  999.0,    0.2,    0.3,    1.6,    1.4,   -2.0,   -0.1,    0.4,    0.6,    2.5,    2.8,    1.7,    1.6,    2.4,    3.6,  999.0,  999.0,  999.0,  999.0,  999.0,  999.0,  999.0,  999.0,  999.0,  999.0,  999.0,  999.0,  999.0,  999.0,  999.0,  999.0,  999.0,  999.0,  999.0,  999.0,  999.0,  999.0,  999.0,  999.0,  999.0,  999.0,  999.0,  999.0,  999.0,  999.0,  999.0,  999.0,  999.0,  999.0,  999.0,  999.0,  999.0,  999.0,  999.0,  999.0,  999.0,  999.0,  999.0
2000/12/26 19:50,  999.0,    4.6,    3.9,    3.7,    3.8,    2.8,    1.6,    1.7,    0.0,    2.4,    3.5,    2.3,    0.8,    6.1,  999.0,  999.0,  999.0,  999.0,  999.0,  999.0,  999.0,  999.0,  999.0,  999.0,  999.0,  999.0,  999.0,  999.0,  999.0,  999.0,  999.0,  999.0,  999.0,  999.0,  999.0,  999.0,  999.0,  999.0,  999.0,  999.0,  999.0,  999.0,  999.0,  999.0,  999.0,  999.0,  999.0,  999.0,  999.0,  999.0,  999.0,  999.0,  999.0,  999.0,  999.0,  999.0,  999.0,  999.0
2000/12/26 20:00,  999.0,    1.9,    1.0,  999.0,    3.0,    0.2,    2.5,    0.8,    1.0,    1.4,    6.2,    6.3,  999.0,  999.0,  999.0,  999.0,  999.0,  999.0,  999.0,  999.0,  999.0,  999.0,  999.0,  999.0,  999.0,  999.0,  999.0,  999.0,  999.0,  999.0,  999.0,  999.0,  999.0,  999.0,  999.0,  999.0,  999.0,  999.0,  999.0,  999.0,  999.0,  999.0,  999.0,  999.0,  999.0,  999.0,  999.0,  999.0,  999.0,  999.0,  999.0,  999.0,  999.0,  999.0,  999.0,  999.0,  999.0,  999.0
2000/12/26 20:10,  999.0,    2.6,    2.5,    2.2,    6.4,    7.6,    4.6,    6.6,    4.7,    6.8,    8.0,    7.8,    8.2,  999.0,  999.0,  999.0,  999.0,  999.0,  999.0,  999.0,  999.0,  999.0,  999.0,  999.0,  999.0,  999.0,  999.0,  999.0,  999.0,  999.0,  999.0,  999.0,  999.0,  999.0,  999.0,  999.0,  999.0,  999.0,  999.0,  999.0,  999.0,  999.0,  999.0,  999.0,  999.0,  999.0,  999.0,  999.0,  999.0,  999.0,  999.0,  999.0,  999.0,  999.0,  999.0,  999.0,  999.0,  999.0
2000/12/26 20:20,  999.0,    0.2,   -2.7,   -1.6,    2.6,    4.2,   -3.2,    2.0,    4.1,    5.3,    5.2,    1.8,    2.6,    1.4,  999.0,  999.0,    5.8,  999.0,  999.0,  999.0,  999.0,  999.0,  999.0,  999.0,  999.0,  999.0,  999.0,  999.0,  999.0,  999.0,  999.0,  999.0,  999.0,  999.0,  999.0,  999.0,  999.0,  999.0,  999.0,  999.0,  999.0,  999.0,  999.0,  999.0,  999.0,  999.0,  999.0,  999.0,  999.0,  999.0,  999.0,  999.0,  999.0,  999.0,  999.0,  999.0,  999.0,  999.0
2000/12/26 20:30,  999.0,    1.6,    7.7,  999.0,    0.3,    4.3,    5.2,    4.5,    8.2,    8.4,    5.0,    3.4,    3.4,  -17.4,  999.0,    8.2,  999.0,  999.0,  999.0,  999.0,  999.0,  999.0,   22.8,  999.0,    0.8,  999.0,  999.0,  999.0,  999.0,  999.0,  999.0,   33.8,  999.0,  999.0,  999.0,  999.0,  999.0,  999.0,   41.2,  999.0,  999.0,  999.0,  999.0,  999.0,  999.0,  999.0,  999.0,  999.0,  999.0,  999.0,  999.0,  999.0,  999.0,   41.5,  999.0,  999.0,  999.0,  999.0
2000/12/26 20:40,  999.0,    3.7,    0.5,    1.6,    1.3,    3.4,    6.1,    9.0,   10.2,    4.6,    2.4,    2.9,    9.1,    7.2,  999.0,  999.0,  999.0,  999.0,  999.0,  999.0,  999.0,  999.0,  999.0,  999.0,  999.0,  999.0,  999.0,  999.0,  999.0,  999.0,  999.0,  999.0,  999.0,  999.0,  999.0,  999.0,  999.0,  999.0,  999.0,  999.0,  999.0,  999.0,  999.0,  999.0,  999.0,  999.0,  999.0,  999.0,  999.0,  999.0,  999.0,  999.0,  999.0,  999.0,  999.0,  999.0,  999.0,  999.0
2000/12/26 20:50,  999.0,    0.5,    1.2,    3.4,    5.7,    7.6,    5.3,    7.6,   -1.3,    8.4,   13.0,    2.8,  999.0,   -2.8,   -3.3,  999.0,  999.0,  999.0,  999.0,  999.0,  999.0,  999.0,  999.0,  999.0,  999.0,  999.0,  999.0,  999.0,  999.0,  999.0,  999.0,  999.0,  999.0,  999.0,  999.0,  999.0,  999.0,  999.0,  999.0,  999.0,  999.0,  999.0,  999.0,  999.0,  999.0,   30.9,  999.0,  999.0,  999.0,  999.0,  999.0,  999.0,  999.0,  999.0,  999.0,  999.0,  999.0,  999.0
2000/12/26 21:00,  999.0,    2.0,  999.0,  999.0,    4.2,    0.2,    0.9,    1.5,    5.0,   13.4,    5.9,    6.5,    5.3,   23.6,   21.0,  999.0,    1.1,  999.0,  999.0,  999.0,  999.0,  999.0,  999.0,   27.1,  999.0,  999.0,  999.0,  999.0,  999.0,  999.0,  999.0,  999.0,  999.0,  999.0,  999.0,  999.0,  999.0,  999.0,  999.0,  999.0,  999.0,  999.0,  999.0,   38.2,  999.0,  999.0,  999.0,  999.0,  999.0,  999.0,  999.0,  999.0,  999.0,  999.0,  999.0,  999.0,  999.0,  999.0
2000/12/26 21:10,  999.0,  999.0,    2.7,  999.0,    0.3,    2.1,    3.0,    3.5,    4.9,    4.3,    4.8,    9.8,    1.8,   10.6,  999.0,  999.0,  999.0,    9.6,  999.0,  999.0,  999.0,  999.0,  999.0,  999.0,  -16.4,  999.0,  999.0,  -13.3,  999.0,  999.0,  -11.7,  999.0,  999.0,  999.0,  999.0,  999.0,  999.0,  999.0,  999.0,  999.0,  999.0,  999.0,   -1.8,  999.0,  999.0,  999.0,   -0.3,  999.0,  999.0,   -0.9,  999.0,  999.0,  999.0,  999.0,  999.0,  999.0,  999.0,  999.0
2000/12/26 21:20,  999.0,  999.0,  999.0,  999.0,  999.0,    2.1,    0.1,    6.1,    1.9,    1.8,    3.3,  999.0,  999.0,   -0.6,    1.2,   -3.2,  999.0,  999.0,  999.0,  999.0,  999.0,  999.0,  999.0,  999.0,  999.0,  999.0,  999.0,  999.0,  999.0,  999.0,  999.0,  999.0,  999.0,    2.4,  999.0,  999.0,  999.0,   -2.4,  999.0,   -2.7,  999.0,   -1.0,  999.0,   -0.3,  999.0,  999.0,   -1.4,   -1.1,   -0.9,  999.0,   -0.4,   -0.8,  999.0,   -0.5,  999.0,  999.0,  999.0,  999.0
2000/12/26 21:30,  999.0,    2.2,    0.5,    2.2,    3.1,   -0.5,    2.3,    2.8,    2.2,    1.0,    2.3,    9.6,   18.9,   -2.1,   -0.8,  999.0,  999.0,  999.0,  999.0,  999.0,  999.0,  999.0,  999.0,  999.0,  999.0,  999.0,  999.0,  999.0,  999.0,  999.0,  999.0,  999.0,   17.8,  999.0,  999.0,  999.0,  999.0,  999.0,  999.0,   -0.5,  999.0,   -0.7,   -0.1,   -0.1,   -0.2,  999.0,   -1.1,   -1.2,   -0.5,  999.0,  999.0,   -0.7,   -1.1,  999.0,  999.0,  999.0,  999.0,  999.0
2000/12/26 21:40,  999.0,  999.0,    4.3,   10.0,    8.8,   10.6,    6.6,    8.1,    6.3,  999.0,   20.2,  999.0,    6.2,    3.1,  999.0,   19.7,  999.0,  999.0,  999.0,  999.0,  999.0,  999.0,  999.0,  999.0,  999.0,  999.0,  999.0,  999.0,  999.0,  999.0,  999.0,  999.0,  999.0,  999.0,  999.0,  999.0,  999.0,  999.0,  999.0,   -0.5,   -0.7,  999.0,   -1.2,  999.0,   -0.8,  999.0,   41.8,   -0.6,  999.0,   -0.2,    0.0,  999.0,   -0.9,  999.0,   -0.7,   -1.1,   -1.1,  999.0
2000/12/26 21:50,  999.0,  999.0,  999.0,  999.0,    7.6,    5.9,    2.2,    3.5,    4.0,   -7.6,  -11.7,  999.0,  -27.9,  999.0,  -26.7,  999.0,  999.0,  999.0,  999.0,  999.0,  999.0,  999.0,  999.0,  999.0,  999.0,  999.0,  999.0,  999.0,  999.0,  999.0,  999.0,   41.8,   41.9,   42.1,  999.0,   42.1,  999.0,   41.7,   42.1,  999.0,  999.0,  999.0,   42.3,  999.0,  999.0,   20.9,  999.0,  999.0,  999.0,   40.9,   20.3,   -0.8,  999.0,   19.9,  999.0,   42.1,   20.4,  999.0
2000/12/26 22:00,  999.0,  999.0,   -0.5,    1.1,    2.5,    4.7,  999.0,    1.9,    3.8,    2.6,  999.0,  999.0,   -7.1,  999.0,   -1.6,   -2.1,  999.0,   -3.8,  999.0,  999.0,  999.0,  999.0,  999.0,  999.0,  999.0,  999.0,  999.0,  999.0,  999.0,  999.0,  999.0,  999.0,  999.0,  999.0,  999.0,  999.0,  999.0,  999.0,  999.0,  999.0,  999.0,  999.0,  999.0,  999.0,  999.0,  999.0,  999.0,  999.0,  999.0,  999.0,  999.0,  999.0,  999.0,  999.0,  999.0,  999.0,  999.0,  999.0
2000/12/26 22:10,  999.0,    2.2,  999.0,  999.0,  999.0,    1.1,    4.9,    1.3,    4.7,    1.5,    4.5,  999.0,  999.0,    2.6,  999.0,  999.0,  999.0,  999.0,  999.0,  999.0,  999.0,  999.0,  999.0,  999.0,  999.0,  999.0,  999.0,  999.0,  999.0,  999.0,  999.0,  999.0,  999.0,  999.0,  999.0,  999.0,  999.0,  999.0,  999.0,  999.0,  999.0,  999.0,  999.0,  999.0,  999.0,  999.0,  999.0,  999.0,   -4.9,  999.0,  999.0,  999.0,  999.0,  999.0,  999.0,  999.0,  999.0,  999.0
2000/12/26 22:20,  999.0,    1.6,    0.6,    7.2,    1.5,    1.8,    4.3,    5.3,  999.0,   -0.1,  999.0,  999.0,  999.0,   -2.7,   -2.5,    6.6,  999.0,  999.0,  999.0,  999.0,  999.0,  999.0,  999.0,  999.0,  999.0,  999.0,  999.0,  999.0,  999.0,  999.0,  999.0,  999.0,  999.0,  999.0,  999.0,  999.0,  999.0,  999.0,  999.0,  999.0,    6.4,  999.0,  999.0,    6.7,  999.0,  999.0,  999.0,  999.0,  999.0,    5.6,  999.0,  999.0,  999.0,  999.0,  999.0,  999.0,    6.0,  999.0
2000/12/26 22:30,  999.0,    2.6,   -0.7,    3.2,    0.6,    1.8,    0.9,    2.6,    4.0,  999.0,   12.0,  999.0,    7.0,   -5.5,  999.0,  999.0,  999.0,  999.0,  999.0,  999.0,  999.0,  999.0,  999.0,  999.0,  999.0,  999.0,  999.0,   21.5,    4.8,   21.8,  999.0,  999.0,  999.0,  999.0,   22.1,   21.7,  999.0,  999.0,   22.2,  999.0,  999.0,  999.0,  999.0,   22.6,  999.0,   23.2,  999.0,  999.0,  999.0,   23.4,    5.4,  999.0,  999.0,  999.0,  999.0,  999.0,  999.0,  999.0
2000/12/26 22:40,  999.0,  999.0,  999.0,  999.0,  999.0,  999.0,  999.0,    5.0,   14.0,  999.0,    2.9,  999.0,  999.0,  999.0,  999.0,  999.0,  999.0,  999.0,  999.0,  999.0,  999.0,  999.0,  999.0,  999.0,  999.0,  999.0,  999.0,  999.0,  999.0,  999.0,  999.0,  999.0,  999.0,  999.0,  999.0,  999.0,  999.0,  999.0,  999.0,  999.0,  999.0,  999.0,  999.0,  999.0,  999.0,  999.0,  999.0,  999.0,  999.0,  999.0,  999.0,  999.0,  999.0,  999.0,  999.0,  999.0,  999.0,  999.0
2000/12/26 22:50,  999.0,   -6.8,   -1.9,   -2.9,  999.0,    3.1,    4.6,    6.0,    6.2,  999.0,  999.0,  999.0,    9.9,   -1.5,   -2.7,   -9.2,  999.0,  999.0,  999.0,  999.0,  999.0,  999.0,  999.0,  999.0,  999.0,  999.0,  999.0,  999.0,  999.0,  999.0,  999.0,  999.0,  999.0,  999.0,  999.0,   -0.8,  999.0,  999.0,  999.0,  999.0,  999.0,  999.0,  999.0,  999.0,  999.0,  999.0,  999.0,  999.0,  999.0,  999.0,  999.0,  999.0,  999.0,  999.0,  999.0,  999.0,  999.0,  999.0
2000/12/26 23:00,  999.0,   -1.8,    0.7,   -4.3,    0.4,    1.5,    5.0,  999.0,  999.0,    4.4,  999.0,  999.0,  999.0,    0.6,  999.0,  999.0,  999.0,  999.0,  999.0,  999.0,  999.0,  999.0,  999.0,  999.0,  999.0,  999.0,  999.0,  999.0,  999.0,  999.0,  999.0,  999.0,  999.0,  999.0,  999.0,  999.0,  999.0,  999.0,  999.0,  999.0,  999.0,  999.0,  999.0,  999.0,  999.0,  999.0,  999.0,  999.0,  999.0,  999.0,  999.0,  999.0,  999.0,  999.0,  999.0,  999.0,  999.0,  999.0
2000/12/26 23:10,  999.0,    0.2,    9.7,    3.7,    2.7,    3.6,    5.1,    1.2,  999.0,  999.0,    2.6,    6.5,  999.0,  999.0,  999.0,   -5.2,  999.0,  999.0,  999.0,  999.0,  999.0,  999.0,  999.0,  999.0,  999.0,  999.0,  999.0,  999.0,  -27.7,  999.0,  999.0,  -29.0,  -29.9,  -30.2,  -30.6,  -31.3,  -31.6,  999.0,  -32.5,  -33.4,  999.0,  -34.5,  -34.5,  -35.5,  -36.1,  -37.2,  -36.9,  -37.1,  -37.4,  -39.5,  -38.4,  -40.0,  -39.7,  -42.2,  -40.8,  -40.8,  -41.0,  -42.1
2000/12/26 23:20,  999.0,    7.1,    0.4,    2.2,    2.5,    3.6,    2.9,    4.0,  999.0,    1.5,    0.9,  999.0,  999.0,  999.0,  999.0,  999.0,  999.0,  999.0,  999.0,  999.0,  999.0,  999.0,  999.0,  999.0,  999.0,  999.0,  999.0,  -28.0,  -29.0,  -30.2,  -29.3,  -27.5,  -31.9,  -31.0,  -31.7,  -34.7,  -33.7,  -35.4,  -32.0,  -34.4,  -38.4,  -38.8,  -36.9,  -38.4,  -41.5,  -38.2,  -39.0,  -41.3,  -42.1,  -41.6,  -41.5,  -42.1,  -38.5,  -40.0,  -42.1,  -41.9,  -40.6,  -40.8
2000/12/26 23:30,  999.0,    0.4,  999.0,    2.2,    1.8,    3.9,    5.3,  999.0,    0.6,  999.0,  999.0,  999.0,  999.0,  999.0,  999.0,  999.0,   -5.6,  999.0,  999.0,  999.0,  999.0,  999.0,  999.0,  999.0,  999.0,  999.0,  999.0,  -28.8,  -29.8,  999.0,  -29.9,  -30.4,  999.0,  -31.5,  -33.1,  999.0,  999.0,  999.0,  -36.9,  -35.7,  999.0,  -41.2,  -41.1,  -34.9,  -34.9,  999.0,  999.0,  -36.5,  -39.8,  -42.0,  -41.4,  -41.3,  -42.1,  999.0,  -41.9,  -41.6,  -41.1,  -42.5
2000/12/26 23:40,  999.0,  999.0,   -1.6,    0.2,    3.6,    2.0,    4.4,    6.2,    4.7,    5.7,  999.0,  999.0,  999.0,  999.0,  999.0,   -6.0,  999.0,  999.0,  999.0,  999.0,  999.0,  -17.5,  999.0,  999.0,  999.0,  999.0,  999.0,  -29.7,  -31.4,  999.0,  999.0,  -34.2,  999.0,  -35.8,  999.0,  -38.0,  -38.7,  -39.7,  -39.8,  -40.3,  -41.5,  999.0,  -27.3,  -42.4,  -41.5,  -41.9,  -41.8,  999.0,  -42.1,  -41.0,  -41.5,  -41.9,  -41.6,  -41.7,  -41.8,  -41.4,  -41.4,  -41.7
2000/12/26 23:50,  999.0,  999.0,    0.8,    1.4,    1.1,    4.8,    2.1,  999.0,  999.0,    4.9,  999.0,    1.8,    3.9,  999.0,  999.0,  999.0,    0.7,  999.0,    3.7,  999.0,  999.0,  999.0,   -4.1,  999.0,  999.0,  999.0,  -16.4,  999.0,  999.0,  999.0,  999.0,  999.0,  999.0,  -29.3,  999.0,  -38.2,  999.0,  -40.5,  999.0,  999.0,  999.0,  -42.1,  -41.9,  -41.9,  -42.1,  -42.4,  -42.7,  -42.5,  -41.7,  -41.8,  -42.4,  999.0,  -42.4,  -41.6,  999.0,  999.0,  -42.0,  -42.1
